Time,TemperatureF,DewpointF,PressureIn,WindDirection,WindDirectionDegrees,WindSpeedMPH,WindSpeedGustMPH,Humidity,HourlyPrecipIn,Conditions,Clouds,dailyrainin,SolarRadiationWatts/m^2,SoftwareType,DateUTC
2013-10-24 00:00:00,39.5,34.5,29.90,WNW,282,2.0,4.0,82,0.00,,,0.00,0,Wunderground v.1.15,2013-10-24 04:00:00,
2013-10-24 00:01:00,39.5,34.5,29.90,West,279,2.0,4.0,82,0.00,,,0.00,0,Wunderground v.1.15,2013-10-24 04:01:00,
2013-10-24 00:02:00,39.6,34.6,29.90,NW,308,2.0,4.0,82,0.00,,,0.00,0,Wunderground v.1.15,2013-10-24 04:02:00,
2013-10-24 00:04:00,39.6,34.6,29.90,WNW,296,2.0,4.0,82,0.00,,,0.00,0,Wunderground v.1.15,2013-10-24 04:04:00,
2013-10-24 00:05:00,39.6,34.6,29.91,WNW,296,2.0,4.0,82,0.00,,,0.00,0,Wunderground v.1.15,2013-10-24 04:05:00,
2013-10-24 00:06:00,39.7,34.7,29.90,WNW,301,2.0,4.0,82,0.00,,,0.00,0,Wunderground v.1.15,2013-10-24 04:06:00,
2013-10-24 00:07:00,39.7,34.7,29.90,North,5,2.0,4.0,82,0.00,,,0.00,0,Wunderground v.1.15,2013-10-24 04:07:00,
2013-10-24 00:08:00,39.7,34.7,29.91,North,9,2.0,4.0,82,0.00,,,0.00,0,Wunderground v.1.15,2013-10-24 04:08:00,
2013-10-24 00:10:00,39.8,34.8,29.91,WNW,299,2.0,2.0,82,0.00,,,0.00,0,Wunderground v.1.15,2013-10-24 04:10:00,
2013-10-24 00:11:00,39.8,34.8,29.91,WNW,299,2.0,2.0,82,0.00,,,0.00,0,Wunderground v.1.15,2013-10-24 04:11:00,
2013-10-24 00:14:00,39.7,34.7,29.91,NW,315,2.0,4.0,82,0.00,,,0.00,0,Wunderground v.1.15,2013-10-24 04:14:00,
2013-10-24 00:15:00,39.7,34.7,29.91,WNW,292,2.0,4.0,82,0.00,,,0.00,0,Wunderground v.1.15,2013-10-24 04:15:00,
2013-10-24 00:17:00,39.6,34.6,29.91,NW,313,2.0,4.0,82,0.00,,,0.00,0,Wunderground v.1.15,2013-10-24 04:17:00,
2013-10-24 00:18:00,39.5,34.5,29.91,NW,312,2.0,4.0,82,0.00,,,0.00,0,Wunderground v.1.15,2013-10-24 04:18:00,
2013-10-24 00:21:00,39.4,34.4,29.91,WNW,293,2.0,2.0,82,0.00,,,0.00,0,Wunderground v.1.15,2013-10-24 04:21:00,
2013-10-24 00:22:00,39.4,34.7,29.91,WNW,283,2.0,2.0,83,0.00,,,0.00,0,Wunderground v.1.15,2013-10-24 04:22:00,
2013-10-24 00:24:00,39.3,34.6,29.91,West,276,2.0,3.0,83,0.00,,,0.00,0,Wunderground v.1.15,2013-10-24 04:24:00,
2013-10-24 00:25:00,39.3,34.6,29.91,WNW,285,2.0,4.0,83,0.00,,,0.00,0,Wunderground v.1.15,2013-10-24 04:25:00,
2013-10-24 00:27:00,39.3,34.6,29.91,WNW,300,2.0,4.0,83,0.00,,,0.00,0,Wunderground v.1.15,2013-10-24 04:27:00,
2013-10-24 00:28:00,39.3,34.6,29.90,WNW,296,2.0,4.0,83,0.00,,,0.00,0,Wunderground v.1.15,2013-10-24 04:28:00,
2013-10-24 00:30:00,39.3,34.6,29.91,NW,325,2.0,2.0,83,0.00,,,0.00,0,Wunderground v.1.15,2013-10-24 04:30:00,
2013-10-24 00:33:00,39.3,34.6,29.90,NW,304,2.0,4.0,83,0.00,,,0.00,0,Wunderground v.1.15,2013-10-24 04:33:00,
2013-10-24 00:34:00,39.3,34.6,29.91,WNW,300,2.0,4.0,83,0.00,,,0.00,0,Wunderground v.1.15,2013-10-24 04:34:00,
2013-10-24 00:36:00,39.3,34.6,29.91,WNW,284,2.0,4.0,83,0.00,,,0.00,0,Wunderground v.1.15,2013-10-24 04:36:00,
2013-10-24 00:37:00,39.3,34.6,29.91,WNW,284,2.0,4.0,83,0.00,,,0.00,0,Wunderground v.1.15,2013-10-24 04:37:00,
2013-10-24 00:39:00,39.2,34.5,29.91,West,273,2.0,4.0,83,0.00,,,0.00,0,Wunderground v.1.15,2013-10-24 04:39:00,
2013-10-24 00:40:00,39.3,34.6,29.91,West,274,1.0,1.0,83,0.00,,,0.00,0,Wunderground v.1.15,2013-10-24 04:40:00,
2013-10-24 00:43:00,39.3,34.6,29.91,West,275,1.0,1.0,83,0.00,,,0.00,0,Wunderground v.1.15,2013-10-24 04:43:00,
2013-10-24 00:45:00,39.3,34.6,29.91,West,280,1.0,1.0,83,0.00,,,0.00,0,Wunderground v.1.15,2013-10-24 04:45:00,
2013-10-24 00:46:00,39.3,34.6,29.91,WNW,284,1.0,2.0,83,0.00,,,0.00,0,Wunderground v.1.15,2013-10-24 04:46:00,
2013-10-24 00:47:00,39.3,34.6,29.91,WNW,292,1.0,2.0,83,0.00,,,0.00,0,Wunderground v.1.15,2013-10-24 04:47:00,
2013-10-24 00:49:00,39.3,34.6,29.91,WNW,292,1.0,2.0,83,0.00,,,0.00,0,Wunderground v.1.15,2013-10-24 04:49:00,
2013-10-24 00:50:00,39.3,34.6,29.91,WNW,282,1.0,1.0,83,0.00,,,0.00,0,Wunderground v.1.15,2013-10-24 04:50:00,
2013-10-24 00:52:00,39.3,34.6,29.91,West,280,1.0,1.0,83,0.00,,,0.00,0,Wunderground v.1.15,2013-10-24 04:52:00,
2013-10-24 00:54:00,39.3,34.6,29.91,WSW,257,1.0,1.0,83,0.00,,,0.00,0,Wunderground v.1.15,2013-10-24 04:54:00,
2013-10-24 00:57:00,39.2,34.5,29.91,WSW,257,0.0,1.0,83,0.00,,,0.00,0,Wunderground v.1.15,2013-10-24 04:57:00,
2013-10-24 00:59:00,39.2,34.5,29.91,WSW,257,0.0,1.0,83,0.00,,,0.00,0,Wunderground v.1.15,2013-10-24 04:59:00,
2013-10-24 01:01:00,39.2,34.8,29.91,West,267,0.0,1.0,84,0.00,,,0.00,0,Wunderground v.1.15,2013-10-24 05:01:00,
2013-10-24 01:03:00,39.2,34.8,29.91,West,281,0.0,4.0,84,0.00,,,0.00,0,Wunderground v.1.15,2013-10-24 05:03:00,
2013-10-24 01:06:00,39.3,34.6,29.91,WNW,284,1.0,4.0,83,0.00,,,0.00,0,Wunderground v.1.15,2013-10-24 05:06:00,
2013-10-24 01:07:00,39.3,34.6,29.91,WNW,284,1.0,4.0,83,0.00,,,0.00,0,Wunderground v.1.15,2013-10-24 05:07:00,
2013-10-24 01:09:00,39.3,34.6,29.91,WNW,282,1.0,4.0,83,0.00,,,0.00,0,Wunderground v.1.15,2013-10-24 05:09:00,
2013-10-24 01:10:00,39.3,34.6,29.91,WNW,282,1.0,1.0,83,0.00,,,0.00,0,Wunderground v.1.15,2013-10-24 05:10:00,
2013-10-24 01:12:00,39.3,34.6,29.91,WNW,282,1.0,1.0,83,0.00,,,0.00,0,Wunderground v.1.15,2013-10-24 05:12:00,
2013-10-24 01:16:00,39.4,34.7,29.91,WNW,282,0.0,2.0,83,0.00,,,0.00,0,Wunderground v.1.15,2013-10-24 05:16:00,
2013-10-24 01:17:00,39.4,34.7,29.91,WNW,282,0.0,2.0,83,0.00,,,0.00,0,Wunderground v.1.15,2013-10-24 05:17:00,
2013-10-24 01:18:00,39.4,34.7,29.91,WNW,282,0.0,2.0,83,0.00,,,0.00,0,Wunderground v.1.15,2013-10-24 05:18:00,
2013-10-24 01:20:00,39.4,34.7,29.91,WNW,288,1.0,1.0,83,0.00,,,0.00,0,Wunderground v.1.15,2013-10-24 05:20:00,
2013-10-24 01:22:00,39.4,34.7,29.92,WNW,288,1.0,1.0,83,0.00,,,0.00,0,Wunderground v.1.15,2013-10-24 05:22:00,
2013-10-24 01:24:00,39.4,34.7,29.92,WNW,288,1.0,1.0,83,0.00,,,0.00,0,Wunderground v.1.15,2013-10-24 05:24:00,
2013-10-24 01:25:00,39.4,34.7,29.92,WNW,288,1.0,1.0,83,0.00,,,0.00,0,Wunderground v.1.15,2013-10-24 05:25:00,
2013-10-24 01:26:00,39.4,34.7,29.92,WNW,285,1.0,1.0,83,0.00,,,0.00,0,Wunderground v.1.15,2013-10-24 05:26:00,
2013-10-24 01:28:00,39.4,34.7,29.92,WNW,284,1.0,1.0,83,0.00,,,0.00,0,Wunderground v.1.15,2013-10-24 05:28:00,
2013-10-24 01:30:00,39.3,34.6,29.92,WNW,284,0.0,0.0,83,0.00,,,0.00,0,Wunderground v.1.15,2013-10-24 05:30:00,
2013-10-24 01:32:00,39.3,34.6,29.92,WNW,284,0.0,0.0,83,0.00,,,0.00,0,Wunderground v.1.15,2013-10-24 05:32:00,
2013-10-24 01:33:00,39.3,34.6,29.92,WNW,284,0.0,1.0,83,0.00,,,0.00,0,Wunderground v.1.15,2013-10-24 05:33:00,
2013-10-24 01:34:00,39.3,34.6,29.92,WNW,284,0.0,1.0,83,0.00,,,0.00,0,Wunderground v.1.15,2013-10-24 05:34:00,
2013-10-24 01:35:00,39.3,34.6,29.92,WNW,284,0.0,1.0,83,0.00,,,0.00,0,Wunderground v.1.15,2013-10-24 05:35:00,
2013-10-24 01:39:00,39.3,34.9,29.92,NW,318,1.0,1.0,84,0.00,,,0.00,0,Wunderground v.1.15,2013-10-24 05:39:00,
2013-10-24 01:41:00,39.3,34.9,29.92,WNW,288,1.0,1.0,84,0.00,,,0.00,0,Wunderground v.1.15,2013-10-24 05:41:00,
2013-10-24 01:44:00,39.3,34.9,29.92,WNW,282,1.0,4.0,84,0.00,,,0.00,0,Wunderground v.1.15,2013-10-24 05:44:00,
2013-10-24 01:46:00,39.3,34.6,29.92,WNW,284,1.0,4.0,83,0.00,,,0.00,0,Wunderground v.1.15,2013-10-24 05:46:00,
2013-10-24 01:47:00,39.3,34.6,29.92,WNW,299,1.0,4.0,83,0.00,,,0.00,0,Wunderground v.1.15,2013-10-24 05:47:00,
2013-10-24 01:48:00,39.3,34.6,29.92,WNW,295,1.0,4.0,83,0.00,,,0.00,0,Wunderground v.1.15,2013-10-24 05:48:00,
2013-10-24 01:50:00,39.4,34.7,29.92,WNW,295,1.0,1.0,83,0.00,,,0.00,0,Wunderground v.1.15,2013-10-24 05:50:00,
2013-10-24 01:53:00,39.4,34.7,29.92,West,277,1.0,4.0,83,0.00,,,0.00,0,Wunderground v.1.15,2013-10-24 05:53:00,
2013-10-24 01:54:00,39.5,34.8,29.92,WNW,293,1.0,4.0,83,0.00,,,0.00,0,Wunderground v.1.15,2013-10-24 05:54:00,
2013-10-24 01:55:00,39.5,34.8,29.92,NW,325,1.0,4.0,83,0.00,,,0.00,0,Wunderground v.1.15,2013-10-24 05:55:00,
2013-10-24 01:56:00,39.5,34.8,29.92,West,277,1.0,4.0,83,0.00,,,0.00,0,Wunderground v.1.15,2013-10-24 05:56:00,
2013-10-24 01:59:00,39.5,34.8,29.92,NW,313,2.0,4.0,83,0.00,,,0.00,0,Wunderground v.1.15,2013-10-24 05:59:00,
2013-10-24 02:01:00,39.4,34.7,29.92,NW,313,2.0,2.0,83,0.00,,,0.00,0,Wunderground v.1.15,2013-10-24 06:01:00,
2013-10-24 02:02:00,39.4,34.7,29.92,WNW,286,2.0,2.0,83,0.00,,,0.00,0,Wunderground v.1.15,2013-10-24 06:02:00,
2013-10-24 02:05:00,39.3,34.6,29.92,WNW,290,1.0,2.0,83,0.00,,,0.00,0,Wunderground v.1.15,2013-10-24 06:05:00,
2013-10-24 02:07:00,39.3,34.6,29.92,WNW,288,1.0,2.0,83,0.00,,,0.00,0,Wunderground v.1.15,2013-10-24 06:07:00,
2013-10-24 02:08:00,39.3,34.6,29.92,WNW,292,1.0,2.0,83,0.00,,,0.00,0,Wunderground v.1.15,2013-10-24 06:08:00,
2013-10-24 02:10:00,39.3,34.6,29.92,WNW,284,1.0,2.0,83,0.00,,,0.00,0,Wunderground v.1.15,2013-10-24 06:10:00,
2013-10-24 02:11:00,39.3,34.6,29.92,WNW,284,1.0,2.0,83,0.00,,,0.00,0,Wunderground v.1.15,2013-10-24 06:11:00,
2013-10-24 02:13:00,39.3,34.6,29.92,WNW,284,1.0,2.0,83,0.00,,,0.00,0,Wunderground v.1.15,2013-10-24 06:13:00,
2013-10-24 02:14:00,39.3,34.6,29.92,WNW,284,1.0,2.0,83,0.00,,,0.00,0,Wunderground v.1.15,2013-10-24 06:14:00,
2013-10-24 02:15:00,39.3,34.6,29.92,WNW,296,1.0,2.0,83,0.00,,,0.00,0,Wunderground v.1.15,2013-10-24 06:15:00,
2013-10-24 02:17:00,39.4,34.7,29.92,WNW,296,1.0,2.0,83,0.00,,,0.00,0,Wunderground v.1.15,2013-10-24 06:17:00,
2013-10-24 02:18:00,39.4,34.7,29.92,WNW,296,1.0,2.0,83,0.00,,,0.00,0,Wunderground v.1.15,2013-10-24 06:18:00,
2013-10-24 02:20:00,39.3,34.6,29.92,WNW,292,1.0,1.0,83,0.00,,,0.00,0,Wunderground v.1.15,2013-10-24 06:20:00,
2013-10-24 02:24:00,39.3,34.6,29.92,WNW,296,1.0,4.0,83,0.00,,,0.00,0,Wunderground v.1.15,2013-10-24 06:24:00,
2013-10-24 02:25:00,39.4,34.7,29.92,NW,311,1.0,4.0,83,0.00,,,0.00,0,Wunderground v.1.15,2013-10-24 06:25:00,
2013-10-24 02:27:00,39.3,34.6,29.93,NW,311,1.0,4.0,83,0.00,,,0.00,0,Wunderground v.1.15,2013-10-24 06:27:00,
2013-10-24 02:29:00,39.3,34.6,29.93,NW,304,1.0,4.0,83,0.00,,,0.00,0,Wunderground v.1.15,2013-10-24 06:29:00,
2013-10-24 02:30:00,39.3,34.6,29.92,WNW,303,1.0,1.0,83,0.00,,,0.00,0,Wunderground v.1.15,2013-10-24 06:30:00,
2013-10-24 02:35:00,39.2,34.5,29.92,WNW,283,2.0,3.0,83,0.00,,,0.00,0,Wunderground v.1.15,2013-10-24 06:35:00,
2013-10-24 02:36:00,39.2,34.5,29.92,WNW,290,2.0,3.0,83,0.00,,,0.00,0,Wunderground v.1.15,2013-10-24 06:36:00,
2013-10-24 02:40:00,39.3,34.6,29.92,West,272,2.0,2.0,83,0.00,,,0.00,0,Wunderground v.1.15,2013-10-24 06:40:00,
2013-10-24 02:42:00,39.3,34.6,29.92,West,270,2.0,3.0,83,0.00,,,0.00,0,Wunderground v.1.15,2013-10-24 06:42:00,
2013-10-24 02:44:00,39.3,34.6,29.93,WNW,290,2.0,3.0,83,0.00,,,0.00,0,Wunderground v.1.15,2013-10-24 06:44:00,
2013-10-24 02:45:00,39.3,34.6,29.93,WNW,294,2.0,3.0,83,0.00,,,0.00,0,Wunderground v.1.15,2013-10-24 06:45:00,
2013-10-24 02:46:00,39.3,34.6,29.93,WNW,295,2.0,3.0,83,0.00,,,0.00,0,Wunderground v.1.15,2013-10-24 06:46:00,
2013-10-24 02:47:00,39.3,34.6,29.93,West,277,2.0,3.0,83,0.00,,,0.00,0,Wunderground v.1.15,2013-10-24 06:47:00,
2013-10-24 02:48:00,39.3,34.6,29.93,WNW,285,2.0,3.0,83,0.00,,,0.00,0,Wunderground v.1.15,2013-10-24 06:48:00,
2013-10-24 02:50:00,39.3,34.6,29.93,WNW,296,2.0,2.0,83,0.00,,,0.00,0,Wunderground v.1.15,2013-10-24 06:50:00,
2013-10-24 02:51:00,39.3,34.6,29.93,North,350,2.0,4.0,83,0.00,,,0.00,0,Wunderground v.1.15,2013-10-24 06:51:00,
2013-10-24 02:52:00,39.3,34.3,29.93,NW,315,2.0,4.0,82,0.00,,,0.00,0,Wunderground v.1.15,2013-10-24 06:52:00,
2013-10-24 02:53:00,39.3,34.3,29.93,WNW,298,2.0,4.0,82,0.00,,,0.00,0,Wunderground v.1.15,2013-10-24 06:53:00,
2013-10-24 02:54:00,39.3,34.3,29.93,WNW,296,1.0,4.0,82,0.00,,,0.00,0,Wunderground v.1.15,2013-10-24 06:54:00,
2013-10-24 02:57:00,39.3,34.3,29.93,WNW,290,2.0,4.0,82,0.00,,,0.00,0,Wunderground v.1.15,2013-10-24 06:57:00,
2013-10-24 02:58:00,39.2,34.2,29.93,WNW,292,2.0,4.0,82,0.00,,,0.00,0,Wunderground v.1.15,2013-10-24 06:58:00,
2013-10-24 02:59:00,39.2,34.2,29.93,WNW,285,2.0,4.0,82,0.00,,,0.00,0,Wunderground v.1.15,2013-10-24 06:59:00,
2013-10-24 03:00:00,39.2,34.2,29.93,NW,314,2.0,4.0,82,0.00,,,0.00,0,Wunderground v.1.15,2013-10-24 07:00:00,
2013-10-24 03:04:00,39.3,34.3,29.93,WNW,287,2.0,4.0,82,0.00,,,0.00,0,Wunderground v.1.15,2013-10-24 07:04:00,
2013-10-24 03:05:00,39.4,34.4,29.93,NW,307,2.0,4.0,82,0.00,,,0.00,0,Wunderground v.1.15,2013-10-24 07:05:00,
2013-10-24 03:07:00,39.5,34.2,29.93,WNW,297,2.0,4.0,81,0.00,,,0.00,0,Wunderground v.1.15,2013-10-24 07:07:00,
2013-10-24 03:08:00,39.5,34.5,29.93,NW,309,2.0,4.0,82,0.00,,,0.00,0,Wunderground v.1.15,2013-10-24 07:08:00,
2013-10-24 03:10:00,39.5,34.5,29.93,WNW,288,2.0,2.0,82,0.00,,,0.00,0,Wunderground v.1.15,2013-10-24 07:10:00,
2013-10-24 03:11:00,39.6,34.2,29.93,WNW,298,2.0,2.0,81,0.00,,,0.00,0,Wunderground v.1.15,2013-10-24 07:11:00,
2013-10-24 03:15:00,39.6,34.2,29.93,WNW,296,2.0,4.0,81,0.00,,,0.00,0,Wunderground v.1.15,2013-10-24 07:15:00,
2013-10-24 03:16:00,39.6,34.2,29.93,NW,307,2.0,4.0,81,0.00,,,0.00,0,Wunderground v.1.15,2013-10-24 07:16:00,
2013-10-24 03:18:00,39.6,34.2,29.93,WNW,290,2.0,5.0,81,0.00,,,0.00,0,Wunderground v.1.15,2013-10-24 07:18:00,
2013-10-24 03:19:00,39.6,34.2,29.93,WNW,288,2.0,5.0,81,0.00,,,0.00,0,Wunderground v.1.15,2013-10-24 07:19:00,
2013-10-24 03:21:00,39.6,34.6,29.93,NW,313,2.0,2.0,82,0.00,,,0.00,0,Wunderground v.1.15,2013-10-24 07:21:00,
2013-10-24 03:22:00,39.6,34.6,29.93,NW,308,2.0,2.0,82,0.00,,,0.00,0,Wunderground v.1.15,2013-10-24 07:22:00,
2013-10-24 03:24:00,39.6,34.6,29.93,NNE,16,2.0,3.0,82,0.00,,,0.00,0,Wunderground v.1.15,2013-10-24 07:24:00,
2013-10-24 03:28:00,39.5,34.5,29.93,WNW,293,2.0,4.0,82,0.00,,,0.00,0,Wunderground v.1.15,2013-10-24 07:28:00,
2013-10-24 03:30:00,39.5,34.5,29.93,West,263,2.0,3.0,82,0.00,,,0.00,0,Wunderground v.1.15,2013-10-24 07:30:00,
2013-10-24 03:33:00,39.5,34.5,29.93,WNW,291,2.0,5.0,82,0.00,,,0.00,0,Wunderground v.1.15,2013-10-24 07:33:00,
2013-10-24 03:36:00,39.5,34.5,29.93,NW,309,2.0,5.0,82,0.00,,,0.00,0,Wunderground v.1.15,2013-10-24 07:36:00,
2013-10-24 03:37:00,39.5,34.5,29.93,WNW,284,2.0,5.0,82,0.00,,,0.00,0,Wunderground v.1.15,2013-10-24 07:37:00,
2013-10-24 03:39:00,39.4,34.4,29.93,WNW,291,2.0,5.0,82,0.00,,,0.00,0,Wunderground v.1.15,2013-10-24 07:39:00,
2013-10-24 03:40:00,39.5,34.5,29.93,WNW,302,3.0,3.0,82,0.00,,,0.00,0,Wunderground v.1.15,2013-10-24 07:40:00,
2013-10-24 03:42:00,39.5,34.5,29.93,NNW,337,3.0,3.0,82,0.00,,,0.00,0,Wunderground v.1.15,2013-10-24 07:42:00,
2013-10-24 03:44:00,39.5,34.2,29.94,NW,320,2.0,3.0,81,0.00,,,0.00,0,Wunderground v.1.15,2013-10-24 07:44:00,
2013-10-24 03:45:00,39.5,34.2,29.93,NW,306,3.0,4.0,81,0.00,,,0.00,0,Wunderground v.1.15,2013-10-24 07:45:00,
2013-10-24 03:47:00,39.5,34.2,29.93,North,355,3.0,4.0,81,0.00,,,0.00,0,Wunderground v.1.15,2013-10-24 07:47:00,
2013-10-24 03:50:00,39.5,34.2,29.94,NW,309,3.0,3.0,81,0.00,,,0.00,0,Wunderground v.1.15,2013-10-24 07:50:00,
2013-10-24 03:51:00,39.5,34.2,29.93,NNW,342,4.0,4.0,81,0.00,,,0.00,0,Wunderground v.1.15,2013-10-24 07:51:00,
2013-10-24 03:52:00,39.5,34.2,29.93,WNW,282,4.0,4.0,81,0.00,,,0.00,0,Wunderground v.1.15,2013-10-24 07:52:00,
2013-10-24 03:55:00,39.4,34.1,29.94,NW,304,4.0,4.0,81,0.00,,,0.00,0,Wunderground v.1.15,2013-10-24 07:55:00,
2013-10-24 03:56:00,39.4,34.1,29.94,WNW,286,4.0,4.0,81,0.00,,,0.00,0,Wunderground v.1.15,2013-10-24 07:56:00,
2013-10-24 03:58:00,39.4,34.1,29.94,WNW,286,3.0,4.0,81,0.00,,,0.00,0,Wunderground v.1.15,2013-10-24 07:58:00,
2013-10-24 04:01:00,39.3,34.0,29.94,WNW,291,2.0,2.0,81,0.00,,,0.00,0,Wunderground v.1.15,2013-10-24 08:01:00,
2013-10-24 04:02:00,39.3,34.0,29.94,WNW,290,2.0,2.0,81,0.00,,,0.00,0,Wunderground v.1.15,2013-10-24 08:02:00,
2013-10-24 04:03:00,39.2,33.9,29.94,West,280,2.0,2.0,81,0.00,,,0.00,0,Wunderground v.1.15,2013-10-24 08:03:00,
2013-10-24 04:06:00,39.1,34.1,29.94,WNW,292,2.0,2.0,82,0.00,,,0.00,0,Wunderground v.1.15,2013-10-24 08:06:00,
2013-10-24 04:10:00,38.9,33.9,29.95,WSW,256,1.0,1.0,82,0.00,,,0.00,0,Wunderground v.1.15,2013-10-24 08:10:00,
2013-10-24 04:12:00,38.8,33.8,29.95,WSW,240,1.0,1.0,82,0.00,,,0.00,0,Wunderground v.1.15,2013-10-24 08:12:00,
2013-10-24 04:14:00,38.8,34.1,29.95,West,275,1.0,2.0,83,0.00,,,0.00,0,Wunderground v.1.15,2013-10-24 08:14:00,
2013-10-24 04:16:00,38.7,34.0,29.95,West,277,1.0,2.0,83,0.00,,,0.00,0,Wunderground v.1.15,2013-10-24 08:16:00,
2013-10-24 04:18:00,38.6,33.9,29.95,WSW,238,1.0,2.0,83,0.00,,,0.00,0,Wunderground v.1.15,2013-10-24 08:18:00,
2013-10-24 04:21:00,38.5,34.1,29.95,SW,232,1.0,2.0,84,0.00,,,0.00,0,Wunderground v.1.15,2013-10-24 08:21:00,
2013-10-24 04:23:00,38.5,34.1,29.95,West,273,2.0,2.0,84,0.00,,,0.00,0,Wunderground v.1.15,2013-10-24 08:23:00,
2013-10-24 04:24:00,38.5,34.1,29.95,West,271,2.0,2.0,84,0.00,,,0.00,0,Wunderground v.1.15,2013-10-24 08:24:00,
2013-10-24 04:25:00,38.5,34.1,29.95,West,266,2.0,2.0,84,0.00,,,0.00,0,Wunderground v.1.15,2013-10-24 08:25:00,
2013-10-24 04:27:00,38.4,34.0,29.95,West,267,2.0,2.0,84,0.00,,,0.00,0,Wunderground v.1.15,2013-10-24 08:27:00,
2013-10-24 04:28:00,38.4,34.0,29.95,WSW,240,2.0,2.0,84,0.00,,,0.00,0,Wunderground v.1.15,2013-10-24 08:28:00,
2013-10-24 04:32:00,38.4,34.0,29.95,SW,236,2.0,2.0,84,0.00,,,0.00,0,Wunderground v.1.15,2013-10-24 08:32:00,
2013-10-24 04:33:00,38.4,34.0,29.95,South,178,1.0,2.0,84,0.00,,,0.00,0,Wunderground v.1.15,2013-10-24 08:33:00,
2013-10-24 04:34:00,38.4,34.0,29.95,SW,216,2.0,2.0,84,0.00,,,0.00,0,Wunderground v.1.15,2013-10-24 08:34:00,
2013-10-24 04:39:00,38.4,34.0,29.96,West,259,1.0,2.0,84,0.00,,,0.00,0,Wunderground v.1.15,2013-10-24 08:39:00,
2013-10-24 04:40:00,38.3,33.9,29.96,SE,134,1.0,1.0,84,0.00,,,0.00,0,Wunderground v.1.15,2013-10-24 08:40:00,
2013-10-24 04:41:00,38.3,33.6,29.96,WSW,244,1.0,2.0,83,0.00,,,0.00,0,Wunderground v.1.15,2013-10-24 08:41:00,
2013-10-24 04:43:00,38.3,33.6,29.96,West,269,1.0,2.0,83,0.00,,,0.00,0,Wunderground v.1.15,2013-10-24 08:43:00,
2013-10-24 04:47:00,38.2,33.5,29.96,SSE,147,1.0,2.0,83,0.00,,,0.00,0,Wunderground v.1.15,2013-10-24 08:47:00,
2013-10-24 04:48:00,38.2,33.8,29.96,West,267,1.0,2.0,84,0.00,,,0.00,0,Wunderground v.1.15,2013-10-24 08:48:00,
2013-10-24 04:50:00,38.2,33.8,29.96,SSW,194,1.0,1.0,84,0.00,,,0.00,0,Wunderground v.1.15,2013-10-24 08:50:00,
2013-10-24 04:51:00,38.1,33.7,29.96,SE,141,1.0,2.0,84,0.00,,,0.00,0,Wunderground v.1.15,2013-10-24 08:51:00,
2013-10-24 04:57:00,38.0,33.6,29.96,West,265,1.0,2.0,84,0.00,,,0.00,0,Wunderground v.1.15,2013-10-24 08:57:00,
2013-10-24 04:58:00,37.9,33.5,29.97,West,265,1.0,2.0,84,0.00,,,0.00,0,Wunderground v.1.15,2013-10-24 08:58:00,
2013-10-24 04:59:00,37.9,33.5,29.96,West,265,1.0,2.0,84,0.00,,,0.00,0,Wunderground v.1.15,2013-10-24 08:59:00,
2013-10-24 05:01:00,37.9,33.8,29.97,WNW,300,1.0,3.0,85,0.00,,,0.00,0,Wunderground v.1.15,2013-10-24 09:01:00,
2013-10-24 05:03:00,37.8,33.7,29.97,SE,146,1.0,3.0,85,0.00,,,0.00,0,Wunderground v.1.15,2013-10-24 09:03:00,
2013-10-24 05:05:00,37.8,33.7,29.96,SE,134,1.0,4.0,85,0.00,,,0.00,0,Wunderground v.1.15,2013-10-24 09:05:00,
2013-10-24 05:06:00,37.7,33.6,29.97,SSW,209,1.0,4.0,85,0.00,,,0.00,0,Wunderground v.1.15,2013-10-24 09:06:00,
2013-10-24 05:08:00,37.7,33.6,29.97,West,271,1.0,4.0,85,0.00,,,0.00,0,Wunderground v.1.15,2013-10-24 09:08:00,
2013-10-24 05:11:00,37.7,33.6,29.96,West,261,1.0,1.0,85,0.00,,,0.00,0,Wunderground v.1.15,2013-10-24 09:11:00,
2013-10-24 05:13:00,37.6,33.5,29.97,WSW,239,1.0,2.0,85,0.00,,,0.00,0,Wunderground v.1.15,2013-10-24 09:13:00,
2013-10-24 05:16:00,37.5,33.4,29.97,SW,222,1.0,2.0,85,0.00,,,0.00,0,Wunderground v.1.15,2013-10-24 09:16:00,
2013-10-24 05:17:00,37.5,33.4,29.97,West,260,1.0,2.0,85,0.00,,,0.00,0,Wunderground v.1.15,2013-10-24 09:17:00,
2013-10-24 05:21:00,37.5,33.4,29.97,WNW,283,1.0,2.0,85,0.00,,,0.00,0,Wunderground v.1.15,2013-10-24 09:21:00,
2013-10-24 05:22:00,37.5,33.7,29.97,WNW,282,1.0,2.0,86,0.00,,,0.00,0,Wunderground v.1.15,2013-10-24 09:22:00,
2013-10-24 05:23:00,37.4,33.6,29.97,WNW,285,1.0,2.0,86,0.00,,,0.00,0,Wunderground v.1.15,2013-10-24 09:23:00,
2013-10-24 05:26:00,37.4,33.6,29.97,South,172,1.0,2.0,86,0.00,,,0.00,0,Wunderground v.1.15,2013-10-24 09:26:00,
2013-10-24 05:27:00,37.4,33.6,29.97,SW,232,1.0,2.0,86,0.00,,,0.00,0,Wunderground v.1.15,2013-10-24 09:27:00,
2013-10-24 05:29:00,37.4,33.6,29.97,WNW,286,1.0,2.0,86,0.00,,,0.00,0,Wunderground v.1.15,2013-10-24 09:29:00,
2013-10-24 05:30:00,37.3,33.5,29.97,West,279,1.0,2.0,86,0.00,,,0.00,0,Wunderground v.1.15,2013-10-24 09:30:00,
2013-10-24 05:31:00,37.3,33.2,29.97,West,279,1.0,2.0,85,0.00,,,0.00,0,Wunderground v.1.15,2013-10-24 09:31:00,
2013-10-24 05:33:00,37.2,33.4,29.97,WNW,288,1.0,2.0,86,0.00,,,0.00,0,Wunderground v.1.15,2013-10-24 09:33:00,
2013-10-24 05:34:00,37.2,33.4,29.97,WNW,288,1.0,2.0,86,0.00,,,0.00,0,Wunderground v.1.15,2013-10-24 09:34:00,
2013-10-24 05:35:00,37.2,33.4,29.97,WNW,286,1.0,2.0,86,0.00,,,0.00,0,Wunderground v.1.15,2013-10-24 09:35:00,
2013-10-24 05:37:00,37.1,33.3,29.97,WNW,286,1.0,2.0,86,0.00,,,0.00,0,Wunderground v.1.15,2013-10-24 09:37:00,
2013-10-24 05:41:00,37.0,33.2,29.97,West,275,1.0,1.0,86,0.00,,,0.00,0,Wunderground v.1.15,2013-10-24 09:41:00,
2013-10-24 05:43:00,37.0,33.2,29.97,West,275,1.0,1.0,86,0.00,,,0.00,0,Wunderground v.1.15,2013-10-24 09:43:00,
2013-10-24 05:45:00,37.0,33.2,29.98,WNW,285,1.0,1.0,86,0.00,,,0.00,0,Wunderground v.1.15,2013-10-24 09:45:00,
2013-10-24 05:47:00,36.9,33.1,29.98,WNW,285,1.0,2.0,86,0.00,,,0.00,0,Wunderground v.1.15,2013-10-24 09:47:00,
2013-10-24 05:48:00,36.9,33.1,29.98,WNW,285,1.0,2.0,86,0.00,,,0.00,0,Wunderground v.1.15,2013-10-24 09:48:00,
2013-10-24 05:50:00,36.8,33.0,29.98,West,266,1.0,2.0,86,0.00,,,0.00,0,Wunderground v.1.15,2013-10-24 09:50:00,
2013-10-24 05:52:00,36.8,33.0,29.98,West,268,1.0,2.0,86,0.00,,,0.00,0,Wunderground v.1.15,2013-10-24 09:52:00,
2013-10-24 05:54:00,36.8,33.0,29.98,West,273,1.0,2.0,86,0.00,,,0.00,0,Wunderground v.1.15,2013-10-24 09:54:00,
2013-10-24 05:55:00,36.7,33.2,29.98,West,277,1.0,2.0,87,0.00,,,0.00,0,Wunderground v.1.15,2013-10-24 09:55:00,
2013-10-24 05:56:00,36.8,33.3,29.98,WNW,285,1.0,2.0,87,0.00,,,0.00,0,Wunderground v.1.15,2013-10-24 09:56:00,
2013-10-24 05:58:00,36.8,33.3,29.98,West,267,1.0,3.0,87,0.00,,,0.00,0,Wunderground v.1.15,2013-10-24 09:58:00,
2013-10-24 06:00:00,36.8,33.3,29.98,SSE,150,1.0,1.0,87,0.00,,,0.00,0,Wunderground v.1.15,2013-10-24 10:00:00,
2013-10-24 06:01:00,36.8,33.3,29.98,South,169,1.0,1.0,87,0.00,,,0.00,0,Wunderground v.1.15,2013-10-24 10:01:00,
2013-10-24 06:03:00,36.8,33.0,29.98,WNW,288,1.0,3.0,86,0.00,,,0.00,0,Wunderground v.1.15,2013-10-24 10:03:00,
2013-10-24 06:06:00,36.8,33.0,29.98,West,269,2.0,4.0,86,0.00,,,0.00,0,Wunderground v.1.15,2013-10-24 10:06:00,
2013-10-24 06:09:00,36.8,33.0,29.98,WSW,257,2.0,4.0,86,0.00,,,0.00,0,Wunderground v.1.15,2013-10-24 10:09:00,
2013-10-24 06:10:00,36.9,33.4,29.98,WSW,251,2.0,2.0,87,0.00,,,0.00,0,Wunderground v.1.15,2013-10-24 10:10:00,
2013-10-24 06:12:00,36.9,33.1,29.98,SSW,213,2.0,2.0,86,0.00,,,0.00,0,Wunderground v.1.15,2013-10-24 10:12:00,
2013-10-24 06:13:00,36.9,33.1,29.98,SE,125,2.0,2.0,86,0.00,,,0.00,0,Wunderground v.1.15,2013-10-24 10:13:00,
2013-10-24 06:14:00,37.0,33.2,29.98,South,169,2.0,2.0,86,0.00,,,0.00,0,Wunderground v.1.15,2013-10-24 10:14:00,
2013-10-24 06:15:00,37.0,33.2,29.98,WNW,300,2.0,2.0,86,0.00,,,0.00,0,Wunderground v.1.15,2013-10-24 10:15:00,
2013-10-24 06:19:00,37.0,33.2,29.98,West,263,2.0,3.0,86,0.00,,,0.00,0,Wunderground v.1.15,2013-10-24 10:19:00,
2013-10-24 06:20:00,37.0,33.2,29.98,WNW,284,1.0,1.0,86,0.00,,,0.00,0,Wunderground v.1.15,2013-10-24 10:20:00,
2013-10-24 06:22:00,37.0,33.2,29.98,WNW,284,1.0,3.0,86,0.00,,,0.00,0,Wunderground v.1.15,2013-10-24 10:22:00,
2013-10-24 06:24:00,37.1,33.3,29.98,SW,235,1.0,3.0,86,0.00,,,0.00,0,Wunderground v.1.15,2013-10-24 10:24:00,
2013-10-24 06:26:00,37.1,33.3,29.98,West,271,1.0,3.0,86,0.00,,,0.00,0,Wunderground v.1.15,2013-10-24 10:26:00,
2013-10-24 06:27:00,37.1,33.6,29.99,West,277,1.0,3.0,87,0.00,,,0.00,0,Wunderground v.1.15,2013-10-24 10:27:00,
2013-10-24 06:29:00,37.1,33.3,29.98,West,275,1.0,3.0,86,0.00,,,0.00,0,Wunderground v.1.15,2013-10-24 10:29:00,
2013-10-24 06:33:00,37.1,33.3,29.98,ESE,109,1.0,2.0,86,0.00,,,0.00,0,Wunderground v.1.15,2013-10-24 10:33:00,
2013-10-24 06:35:00,37.1,33.3,29.99,WNW,284,1.0,2.0,86,0.00,,,0.00,0,Wunderground v.1.15,2013-10-24 10:35:00,
2013-10-24 06:36:00,37.1,33.3,29.98,West,270,1.0,2.0,86,0.00,,,0.00,0,Wunderground v.1.15,2013-10-24 10:36:00,
2013-10-24 06:37:00,37.1,33.3,29.98,WSW,239,1.0,2.0,86,0.00,,,0.00,0,Wunderground v.1.15,2013-10-24 10:37:00,
2013-10-24 06:41:00,37.1,33.6,29.99,WSW,247,2.0,2.0,87,0.00,,,0.00,0,Wunderground v.1.15,2013-10-24 10:41:00,
2013-10-24 06:42:00,37.1,33.6,29.99,West,262,2.0,2.0,87,0.00,,,0.00,0,Wunderground v.1.15,2013-10-24 10:42:00,
2013-10-24 06:43:00,37.1,33.6,29.99,West,281,2.0,2.0,87,0.00,,,0.00,0,Wunderground v.1.15,2013-10-24 10:43:00,
2013-10-24 06:45:00,37.1,33.6,29.99,West,274,3.0,3.0,87,0.00,,,0.00,0,Wunderground v.1.15,2013-10-24 10:45:00,
2013-10-24 06:48:00,37.1,33.6,29.99,West,272,3.0,4.0,87,0.00,,,0.00,0,Wunderground v.1.15,2013-10-24 10:48:00,
2013-10-24 06:51:00,37.3,33.8,29.99,WSW,252,3.0,3.0,87,0.00,,,0.00,0,Wunderground v.1.15,2013-10-24 10:51:00,
2013-10-24 06:52:00,37.3,33.8,29.99,WNW,284,3.0,3.0,87,0.00,,,0.00,0,Wunderground v.1.15,2013-10-24 10:52:00,
2013-10-24 06:54:00,37.3,33.5,29.99,West,281,3.0,3.0,86,0.00,,,0.00,0,Wunderground v.1.15,2013-10-24 10:54:00,
2013-10-24 06:56:00,37.4,33.6,29.99,NW,321,2.0,3.0,86,0.00,,,0.00,0,Wunderground v.1.15,2013-10-24 10:56:00,
2013-10-24 06:58:00,37.4,33.6,29.99,SW,236,2.0,3.0,86,0.00,,,0.00,0,Wunderground v.1.15,2013-10-24 10:58:00,
2013-10-24 07:00:00,37.4,33.6,29.99,South,169,2.0,2.0,86,0.00,,,0.00,0,Wunderground v.1.15,2013-10-24 11:00:00,
2013-10-24 07:01:00,37.4,33.6,29.99,ESE,115,2.0,2.0,86,0.00,,,0.00,0,Wunderground v.1.15,2013-10-24 11:01:00,
2013-10-24 07:06:00,37.5,33.7,29.99,WNW,288,2.0,2.0,86,0.00,,,0.00,0,Wunderground v.1.15,2013-10-24 11:06:00,
2013-10-24 07:07:00,37.5,33.7,29.99,West,271,2.0,2.0,86,0.00,,,0.00,0,Wunderground v.1.15,2013-10-24 11:07:00,
2013-10-24 07:08:00,37.5,33.7,29.99,SSE,165,2.0,2.0,86,0.00,,,0.00,0,Wunderground v.1.15,2013-10-24 11:08:00,
2013-10-24 07:11:00,37.5,33.7,29.99,West,275,1.0,2.0,86,0.00,,,0.00,0,Wunderground v.1.15,2013-10-24 11:11:00,
2013-10-24 07:13:00,37.5,33.7,30.00,West,275,1.0,2.0,86,0.00,,,0.00,0,Wunderground v.1.15,2013-10-24 11:13:00,
2013-10-24 07:15:00,37.5,33.7,30.00,West,274,1.0,2.0,86,0.00,,,0.00,0,Wunderground v.1.15,2013-10-24 11:15:00,
2013-10-24 07:17:00,37.5,33.7,30.00,WSW,250,1.0,2.0,86,0.00,,,0.00,0,Wunderground v.1.15,2013-10-24 11:17:00,
2013-10-24 07:18:00,37.5,33.7,30.00,WSW,254,1.0,2.0,86,0.00,,,0.00,0,Wunderground v.1.15,2013-10-24 11:18:00,
2013-10-24 07:19:00,37.5,33.7,30.00,West,269,1.0,2.0,86,0.00,,,0.00,0,Wunderground v.1.15,2013-10-24 11:19:00,
2013-10-24 07:21:00,37.5,33.7,30.00,WNW,292,1.0,2.0,86,0.00,,,0.00,0,Wunderground v.1.15,2013-10-24 11:21:00,
2013-10-24 07:23:00,37.5,33.7,30.00,West,260,1.0,2.0,86,0.00,,,0.00,0,Wunderground v.1.15,2013-10-24 11:23:00,
2013-10-24 07:24:00,37.5,33.7,30.00,SW,236,1.0,2.0,86,0.00,,,0.00,0,Wunderground v.1.15,2013-10-24 11:24:00,
2013-10-24 07:25:00,37.5,33.7,30.00,WSW,238,1.0,2.0,86,0.00,,,0.00,0,Wunderground v.1.15,2013-10-24 11:25:00,
2013-10-24 07:26:00,37.5,33.7,30.00,West,262,1.0,2.0,86,0.00,,,0.00,0,Wunderground v.1.15,2013-10-24 11:26:00,
2013-10-24 07:28:00,37.5,33.7,30.00,WSW,257,1.0,2.0,86,0.00,,,0.00,5,Wunderground v.1.15,2013-10-24 11:28:00,
2013-10-24 07:31:00,37.5,33.7,30.00,West,272,1.0,2.0,86,0.00,,,0.00,7,Wunderground v.1.15,2013-10-24 11:31:00,
2013-10-24 07:32:00,37.5,33.7,29.99,WSW,243,2.0,2.0,86,0.00,,,0.00,7,Wunderground v.1.15,2013-10-24 11:32:00,
2013-10-24 07:33:00,37.5,33.7,30.00,West,270,2.0,3.0,86,0.00,,,0.00,7,Wunderground v.1.15,2013-10-24 11:33:00,
2013-10-24 07:36:00,37.5,33.7,30.00,West,279,2.0,4.0,86,0.00,,,0.00,11,Wunderground v.1.15,2013-10-24 11:36:00,
2013-10-24 07:38:00,37.5,33.7,30.00,West,261,2.0,4.0,86,0.00,,,0.00,11,Wunderground v.1.15,2013-10-24 11:38:00,
2013-10-24 07:40:00,37.5,33.7,30.00,WNW,288,2.0,2.0,86,0.00,,,0.00,14,Wunderground v.1.15,2013-10-24 11:40:00,
2013-10-24 07:41:00,37.5,33.7,30.00,WNW,288,2.0,2.0,86,0.00,,,0.00,16,Wunderground v.1.15,2013-10-24 11:41:00,
2013-10-24 07:43:00,37.6,33.8,30.00,West,265,2.0,2.0,86,0.00,,,0.00,19,Wunderground v.1.15,2013-10-24 11:43:00,
2013-10-24 07:45:00,37.6,33.8,30.00,WNW,294,2.0,2.0,86,0.00,,,0.00,23,Wunderground v.1.15,2013-10-24 11:45:00,
2013-10-24 07:46:00,37.6,33.8,30.00,WNW,290,2.0,2.0,86,0.00,,,0.00,28,Wunderground v.1.15,2013-10-24 11:46:00,
2013-10-24 07:51:00,37.7,33.9,30.00,WNW,292,1.0,2.0,86,0.00,,,0.00,40,Wunderground v.1.15,2013-10-24 11:51:00,
2013-10-24 07:52:00,37.7,33.9,30.00,West,269,1.0,4.0,86,0.00,,,0.00,40,Wunderground v.1.15,2013-10-24 11:52:00,
2013-10-24 07:53:00,37.8,34.0,30.00,SW,228,1.0,4.0,86,0.00,,,0.00,42,Wunderground v.1.15,2013-10-24 11:53:00,
2013-10-24 07:54:00,37.8,34.0,30.00,East,90,2.0,4.0,86,0.00,,,0.00,46,Wunderground v.1.15,2013-10-24 11:54:00,
2013-10-24 07:55:00,37.8,34.0,30.00,East,95,2.0,4.0,86,0.00,,,0.00,47,Wunderground v.1.15,2013-10-24 11:55:00,
2013-10-24 07:57:00,37.9,33.8,30.00,ESE,102,2.0,4.0,85,0.00,,,0.00,54,Wunderground v.1.15,2013-10-24 11:57:00,
2013-10-24 08:00:00,37.9,33.8,30.00,West,263,2.0,2.0,85,0.00,,,0.00,65,Wunderground v.1.15,2013-10-24 12:00:00,
2013-10-24 08:02:00,38.0,33.9,30.00,South,184,1.0,3.0,85,0.00,,,0.00,72,Wunderground v.1.15,2013-10-24 12:02:00,
2013-10-24 08:04:00,38.0,33.9,30.00,South,169,1.0,3.0,85,0.00,,,0.00,70,Wunderground v.1.15,2013-10-24 12:04:00,
2013-10-24 08:06:00,38.1,34.0,30.00,SSE,151,1.0,3.0,85,0.00,,,0.00,70,Wunderground v.1.15,2013-10-24 12:06:00,
2013-10-24 08:08:00,38.1,34.0,30.00,South,179,2.0,4.0,85,0.00,,,0.00,74,Wunderground v.1.15,2013-10-24 12:08:00,
2013-10-24 08:09:00,38.1,34.0,30.00,SE,125,2.0,4.0,85,0.00,,,0.00,74,Wunderground v.1.15,2013-10-24 12:09:00,
2013-10-24 08:10:00,38.2,34.1,30.00,SE,132,2.0,2.0,85,0.00,,,0.00,72,Wunderground v.1.15,2013-10-24 12:10:00,
2013-10-24 08:12:00,38.2,34.1,30.00,SSE,148,2.0,2.0,85,0.00,,,0.00,70,Wunderground v.1.15,2013-10-24 12:12:00,
2013-10-24 08:14:00,38.3,34.2,30.00,WNW,298,2.0,3.0,85,0.00,,,0.00,67,Wunderground v.1.15,2013-10-24 12:14:00,
2013-10-24 08:17:00,38.3,34.2,30.00,West,261,2.0,4.0,85,0.00,,,0.00,62,Wunderground v.1.15,2013-10-24 12:17:00,
2013-10-24 08:19:00,38.4,34.3,30.01,WSW,238,2.0,4.0,85,0.00,,,0.00,54,Wunderground v.1.15,2013-10-24 12:19:00,
2013-10-24 08:20:00,38.4,34.3,30.01,WSW,251,2.0,2.0,85,0.00,,,0.00,51,Wunderground v.1.15,2013-10-24 12:20:00,
2013-10-24 08:22:00,38.4,34.3,30.01,NW,308,2.0,2.0,85,0.00,,,0.00,51,Wunderground v.1.15,2013-10-24 12:22:00,
2013-10-24 08:25:00,38.6,34.5,30.01,WNW,290,2.0,2.0,85,0.00,,,0.00,56,Wunderground v.1.15,2013-10-24 12:25:00,
2013-10-24 08:26:00,38.6,34.5,30.01,SE,134,2.0,2.0,85,0.00,,,0.00,58,Wunderground v.1.15,2013-10-24 12:26:00,
2013-10-24 08:27:00,38.6,34.5,30.01,East,87,2.0,2.0,85,0.00,,,0.00,63,Wunderground v.1.15,2013-10-24 12:27:00,
2013-10-24 08:28:00,38.6,34.5,30.01,WNW,286,2.0,3.0,85,0.00,,,0.00,67,Wunderground v.1.15,2013-10-24 12:28:00,
2013-10-24 08:33:00,38.8,34.7,30.02,West,262,1.0,2.0,85,0.00,,,0.00,83,Wunderground v.1.15,2013-10-24 12:33:00,
2013-10-24 08:34:00,38.8,34.7,30.01,North,355,1.0,2.0,85,0.00,,,0.00,84,Wunderground v.1.15,2013-10-24 12:34:00,
2013-10-24 08:35:00,38.8,34.7,30.01,SW,225,2.0,2.0,85,0.00,,,0.00,86,Wunderground v.1.15,2013-10-24 12:35:00,
2013-10-24 08:38:00,38.9,34.5,30.02,WSW,258,2.0,4.0,84,0.00,,,0.00,88,Wunderground v.1.15,2013-10-24 12:38:00,
2013-10-24 08:40:00,39.0,34.6,30.01,West,261,2.0,2.0,84,0.00,,,0.00,86,Wunderground v.1.15,2013-10-24 12:40:00,
2013-10-24 08:42:00,39.0,34.6,30.02,West,274,2.0,2.0,84,0.00,,,0.00,86,Wunderground v.1.15,2013-10-24 12:42:00,
2013-10-24 08:43:00,39.1,34.7,30.02,WSW,249,2.0,2.0,84,0.00,,,0.00,84,Wunderground v.1.15,2013-10-24 12:43:00,
2013-10-24 08:44:00,39.1,34.7,30.02,West,279,2.0,4.0,84,0.00,,,0.00,69,Wunderground v.1.15,2013-10-24 12:44:00,
2013-10-24 08:47:00,39.2,34.8,30.02,WNW,301,3.0,4.0,84,0.00,,,0.00,47,Wunderground v.1.15,2013-10-24 12:47:00,
2013-10-24 08:48:00,39.3,34.9,30.02,WSW,254,3.0,4.0,84,0.00,,,0.00,42,Wunderground v.1.15,2013-10-24 12:48:00,
2013-10-24 08:52:00,39.4,34.7,30.02,South,188,3.0,3.0,83,0.00,,,0.00,40,Wunderground v.1.15,2013-10-24 12:52:00,
2013-10-24 08:54:00,39.4,34.7,30.02,West,281,3.0,3.0,83,0.00,,,0.00,44,Wunderground v.1.15,2013-10-24 12:54:00,
2013-10-24 08:56:00,39.5,35.1,30.02,West,277,3.0,4.0,84,0.00,,,0.00,42,Wunderground v.1.15,2013-10-24 12:56:00,
2013-10-24 08:57:00,39.5,34.8,30.02,SSE,155,3.0,4.0,83,0.00,,,0.00,42,Wunderground v.1.15,2013-10-24 12:57:00,
2013-10-24 08:58:00,39.5,34.8,30.02,SSE,160,3.0,4.0,83,0.00,,,0.00,42,Wunderground v.1.15,2013-10-24 12:58:00,
2013-10-24 08:59:00,39.6,34.9,30.02,South,179,3.0,4.0,83,0.00,,,0.00,42,Wunderground v.1.15,2013-10-24 12:59:00,
2013-10-24 09:00:00,39.7,35.0,30.02,West,281,3.0,6.0,83,0.00,,,0.00,42,Wunderground v.1.15,2013-10-24 13:00:00,
2013-10-24 09:04:00,39.9,35.2,30.02,SE,136,3.0,6.0,83,0.00,,,0.00,214,Wunderground v.1.15,2013-10-24 13:04:00,
2013-10-24 09:05:00,40.0,34.9,30.01,SE,124,3.0,6.0,82,0.00,,,0.00,218,Wunderground v.1.15,2013-10-24 13:05:00,
2013-10-24 09:06:00,40.0,34.9,30.02,SSE,158,3.0,6.0,82,0.00,,,0.00,221,Wunderground v.1.15,2013-10-24 13:06:00,
2013-10-24 09:07:00,40.1,35.0,30.02,ESE,121,3.0,6.0,82,0.00,,,0.00,225,Wunderground v.1.15,2013-10-24 13:07:00,
2013-10-24 09:09:00,40.3,35.2,30.02,ESE,119,3.0,6.0,82,0.00,,,0.00,234,Wunderground v.1.15,2013-10-24 13:09:00,
2013-10-24 09:12:00,40.6,35.2,30.02,ESE,113,4.0,5.0,81,0.00,,,0.00,243,Wunderground v.1.15,2013-10-24 13:12:00,
2013-10-24 09:14:00,40.7,35.0,30.02,NE,43,4.0,6.0,80,0.00,,,0.00,246,Wunderground v.1.15,2013-10-24 13:14:00,
2013-10-24 09:17:00,41.0,35.3,30.02,WSW,255,4.0,6.0,80,0.00,,,0.00,255,Wunderground v.1.15,2013-10-24 13:17:00,
2013-10-24 09:19:00,41.2,35.2,30.02,WSW,249,4.0,7.0,79,0.00,,,0.00,260,Wunderground v.1.15,2013-10-24 13:19:00,
2013-10-24 09:21:00,41.3,35.0,30.02,SE,130,4.0,5.0,78,0.00,,,0.00,234,Wunderground v.1.15,2013-10-24 13:21:00,
2013-10-24 09:23:00,41.4,35.1,30.02,SE,144,4.0,6.0,78,0.00,,,0.00,279,Wunderground v.1.15,2013-10-24 13:23:00,
2013-10-24 09:24:00,41.5,35.2,30.02,West,278,3.0,6.0,78,0.00,,,0.00,283,Wunderground v.1.15,2013-10-24 13:24:00,
2013-10-24 09:25:00,41.5,34.8,30.02,WSW,250,4.0,6.0,77,0.00,,,0.00,283,Wunderground v.1.15,2013-10-24 13:25:00,
2013-10-24 09:28:00,41.8,35.1,30.02,WNW,303,4.0,6.0,77,0.00,,,0.00,294,Wunderground v.1.15,2013-10-24 13:28:00,
2013-10-24 09:29:00,41.8,34.5,30.02,WNW,286,4.0,9.0,75,0.00,,,0.00,294,Wunderground v.1.15,2013-10-24 13:29:00,
2013-10-24 09:30:00,41.8,34.1,30.02,WNW,291,4.0,4.0,74,0.00,,,0.00,297,Wunderground v.1.15,2013-10-24 13:30:00,
2013-10-24 09:32:00,42.0,34.3,30.02,WNW,288,4.0,5.0,74,0.00,,,0.00,315,Wunderground v.1.15,2013-10-24 13:32:00,
2013-10-24 09:33:00,42.1,34.4,30.02,West,274,4.0,6.0,74,0.00,,,0.00,323,Wunderground v.1.15,2013-10-24 13:33:00,
2013-10-24 09:34:00,42.2,34.2,30.02,West,263,5.0,6.0,73,0.00,,,0.00,325,Wunderground v.1.15,2013-10-24 13:34:00,
2013-10-24 09:36:00,42.3,34.6,30.02,West,267,4.0,6.0,74,0.00,,,0.00,338,Wunderground v.1.15,2013-10-24 13:36:00,
2013-10-24 09:37:00,42.5,34.8,30.02,NW,304,4.0,6.0,74,0.00,,,0.00,301,Wunderground v.1.15,2013-10-24 13:37:00,
2013-10-24 09:39:00,42.7,34.6,30.02,West,268,4.0,6.0,73,0.00,,,0.00,243,Wunderground v.1.15,2013-10-24 13:39:00,
2013-10-24 09:40:00,42.7,34.6,30.02,WNW,295,4.0,5.0,73,0.00,,,0.00,364,Wunderground v.1.15,2013-10-24 13:40:00,
2013-10-24 09:43:00,42.9,33.4,30.02,WNW,298,4.0,12.0,69,0.00,,,0.00,432,Wunderground v.1.15,2013-10-24 13:43:00,
2013-10-24 09:44:00,43.0,33.5,30.02,WNW,292,4.0,12.0,69,0.00,,,0.00,193,Wunderground v.1.15,2013-10-24 13:44:00,
2013-10-24 09:45:00,43.0,33.9,30.02,NW,308,4.0,12.0,70,0.00,,,0.00,204,Wunderground v.1.15,2013-10-24 13:45:00,
2013-10-24 09:46:00,43.0,33.2,30.02,NNW,327,4.0,12.0,68,0.00,,,0.00,209,Wunderground v.1.15,2013-10-24 13:46:00,
2013-10-24 09:49:00,43.0,32.8,30.02,West,279,5.0,12.0,67,0.00,,,0.00,195,Wunderground v.1.15,2013-10-24 13:49:00,
2013-10-24 09:50:00,43.0,32.4,30.02,WNW,285,5.0,5.0,66,0.00,,,0.00,195,Wunderground v.1.15,2013-10-24 13:50:00,
2013-10-24 09:52:00,42.9,32.3,30.02,North,350,6.0,13.0,66,0.00,,,0.00,155,Wunderground v.1.15,2013-10-24 13:52:00,
2013-10-24 09:53:00,42.9,32.3,30.02,WNW,294,6.0,13.0,66,0.00,,,0.00,144,Wunderground v.1.15,2013-10-24 13:53:00,
2013-10-24 09:54:00,42.9,32.3,30.02,SW,224,6.0,13.0,66,0.00,,,0.00,153,Wunderground v.1.15,2013-10-24 13:54:00,
2013-10-24 09:56:00,42.9,32.3,30.02,NNW,344,5.0,13.0,66,0.00,,,0.00,142,Wunderground v.1.15,2013-10-24 13:56:00,
2013-10-24 09:57:00,43.0,32.4,30.02,WSW,254,5.0,13.0,66,0.00,,,0.00,139,Wunderground v.1.15,2013-10-24 13:57:00,
2013-10-24 09:59:00,43.0,32.4,30.02,West,259,5.0,13.0,66,0.00,,,0.00,146,Wunderground v.1.15,2013-10-24 13:59:00,
2013-10-24 10:03:00,42.9,31.6,30.02,WNW,284,4.0,6.0,64,0.00,,,0.00,163,Wunderground v.1.15,2013-10-24 14:03:00,
2013-10-24 10:04:00,42.8,31.5,30.02,SSE,148,4.0,6.0,64,0.00,,,0.00,158,Wunderground v.1.15,2013-10-24 14:04:00,
2013-10-24 10:05:00,42.8,31.8,30.02,WSW,240,4.0,6.0,65,0.00,,,0.00,156,Wunderground v.1.15,2013-10-24 14:05:00,
2013-10-24 10:09:00,42.9,31.6,30.02,WSW,244,4.0,6.0,64,0.00,,,0.00,128,Wunderground v.1.15,2013-10-24 14:09:00,
2013-10-24 10:10:00,42.9,31.6,30.02,WNW,288,4.0,4.0,64,0.00,,,0.00,125,Wunderground v.1.15,2013-10-24 14:10:00,
2013-10-24 10:11:00,42.9,31.6,30.03,SSE,165,4.0,7.0,64,0.00,,,0.00,125,Wunderground v.1.15,2013-10-24 14:11:00,
2013-10-24 10:12:00,42.8,31.5,30.02,WNW,290,4.0,7.0,64,0.00,,,0.00,139,Wunderground v.1.15,2013-10-24 14:12:00,
2013-10-24 10:13:00,42.8,31.5,30.02,West,277,4.0,8.0,64,0.00,,,0.00,128,Wunderground v.1.15,2013-10-24 14:13:00,
2013-10-24 10:16:00,42.7,31.4,30.02,West,277,4.0,8.0,64,0.00,,,0.00,127,Wunderground v.1.15,2013-10-24 14:16:00,
2013-10-24 10:18:00,42.8,31.5,30.02,NNW,335,5.0,8.0,64,0.00,,,0.00,174,Wunderground v.1.15,2013-10-24 14:18:00,
2013-10-24 10:19:00,42.8,31.5,30.02,NW,312,5.0,8.0,64,0.00,,,0.00,153,Wunderground v.1.15,2013-10-24 14:19:00,
2013-10-24 10:22:00,42.9,31.6,30.02,WNW,296,5.0,7.0,64,0.00,,,0.00,148,Wunderground v.1.15,2013-10-24 14:22:00,
2013-10-24 10:23:00,42.9,31.6,30.02,NNW,341,5.0,7.0,64,0.00,,,0.00,165,Wunderground v.1.15,2013-10-24 14:23:00,
2013-10-24 10:26:00,43.0,31.6,30.02,West,279,5.0,7.0,64,0.00,,,0.00,178,Wunderground v.1.15,2013-10-24 14:26:00,
2013-10-24 10:28:00,43.0,31.6,30.02,WNW,296,5.0,7.0,64,0.00,,,0.00,179,Wunderground v.1.15,2013-10-24 14:28:00,
2013-10-24 10:30:00,43.1,31.4,30.03,East,84,4.0,4.0,63,0.00,,,0.00,176,Wunderground v.1.15,2013-10-24 14:30:00,
2013-10-24 10:31:00,43.2,31.4,30.02,West,280,4.0,4.0,63,0.00,,,0.00,176,Wunderground v.1.15,2013-10-24 14:31:00,
2013-10-24 10:32:00,43.2,31.4,30.02,WSW,240,4.0,4.0,63,0.00,,,0.00,179,Wunderground v.1.15,2013-10-24 14:32:00,
2013-10-24 10:34:00,43.3,31.5,30.02,NE,52,4.0,4.0,63,0.00,,,0.00,193,Wunderground v.1.15,2013-10-24 14:34:00,
2013-10-24 10:36:00,43.4,31.2,30.02,ESE,105,4.0,7.0,62,0.00,,,0.00,202,Wunderground v.1.15,2013-10-24 14:36:00,
2013-10-24 10:37:00,43.5,31.3,30.02,WNW,302,4.0,7.0,62,0.00,,,0.00,192,Wunderground v.1.15,2013-10-24 14:37:00,
2013-10-24 10:38:00,43.5,31.3,30.02,WNW,300,4.0,7.0,62,0.00,,,0.00,202,Wunderground v.1.15,2013-10-24 14:38:00,
2013-10-24 10:40:00,43.7,31.1,30.02,NW,306,4.0,5.0,61,0.00,,,0.00,229,Wunderground v.1.15,2013-10-24 14:40:00,
2013-10-24 10:41:00,43.7,31.5,30.02,WNW,286,4.0,5.0,62,0.00,,,0.00,229,Wunderground v.1.15,2013-10-24 14:41:00,
2013-10-24 10:44:00,43.8,31.2,30.02,North,355,5.0,9.0,61,0.00,,,0.00,171,Wunderground v.1.15,2013-10-24 14:44:00,
2013-10-24 10:46:00,43.9,30.9,30.02,West,260,5.0,9.0,60,0.00,,,0.00,171,Wunderground v.1.15,2013-10-24 14:46:00,
2013-10-24 10:47:00,44.0,31.0,30.02,NW,307,5.0,9.0,60,0.00,,,0.00,584,Wunderground v.1.15,2013-10-24 14:47:00,
2013-10-24 10:48:00,44.1,31.1,30.02,SW,221,5.0,9.0,60,0.00,,,0.00,606,Wunderground v.1.15,2013-10-24 14:48:00,
2013-10-24 10:49:00,44.2,31.2,30.02,NNW,331,6.0,9.0,60,0.00,,,0.00,606,Wunderground v.1.15,2013-10-24 14:49:00,
2013-10-24 10:51:00,44.5,31.1,30.02,WNW,288,6.0,8.0,59,0.00,,,0.00,582,Wunderground v.1.15,2013-10-24 14:51:00,
2013-10-24 10:53:00,44.7,31.2,30.02,NW,321,6.0,8.0,59,0.00,,,0.00,582,Wunderground v.1.15,2013-10-24 14:53:00,
2013-10-24 10:54:00,44.8,30.9,30.02,West,275,6.0,8.0,58,0.00,,,0.00,606,Wunderground v.1.15,2013-10-24 14:54:00,
2013-10-24 10:58:00,45.0,30.7,30.02,WNW,296,6.0,8.0,57,0.00,,,0.00,613,Wunderground v.1.15,2013-10-24 14:58:00,
2013-10-24 10:59:00,45.2,30.9,30.02,WNW,293,6.0,8.0,57,0.00,,,0.00,526,Wunderground v.1.15,2013-10-24 14:59:00,
2013-10-24 11:00:00,45.3,31.0,30.02,West,278,6.0,6.0,57,0.00,,,0.00,526,Wunderground v.1.15,2013-10-24 15:00:00,
2013-10-24 11:01:00,45.3,31.0,30.02,WNW,293,6.0,6.0,57,0.00,,,0.00,526,Wunderground v.1.15,2013-10-24 15:01:00,
2013-10-24 11:05:00,45.8,30.5,30.02,WNW,285,6.0,7.0,55,0.00,,,0.00,448,Wunderground v.1.15,2013-10-24 15:05:00,
2013-10-24 11:06:00,45.8,30.1,30.02,West,277,6.0,7.0,54,0.00,,,0.00,617,Wunderground v.1.15,2013-10-24 15:06:00,
2013-10-24 11:07:00,45.8,30.1,30.02,WNW,303,6.0,7.0,54,0.00,,,0.00,617,Wunderground v.1.15,2013-10-24 15:07:00,
2013-10-24 11:09:00,45.9,30.2,30.01,WSW,254,6.0,7.0,54,0.00,,,0.00,664,Wunderground v.1.15,2013-10-24 15:09:00,
2013-10-24 11:11:00,46.0,29.8,30.01,West,269,5.0,7.0,53,0.00,,,0.00,698,Wunderground v.1.15,2013-10-24 15:11:00,
2013-10-24 11:14:00,45.8,30.1,30.01,North,11,6.0,7.0,54,0.00,,,0.00,239,Wunderground v.1.15,2013-10-24 15:14:00,
2013-10-24 11:15:00,45.8,29.6,30.01,NNE,28,5.0,7.0,53,0.00,,,0.00,292,Wunderground v.1.15,2013-10-24 15:15:00,
2013-10-24 11:17:00,45.8,30.1,30.01,SW,229,5.0,7.0,54,0.00,,,0.00,663,Wunderground v.1.15,2013-10-24 15:17:00,
2013-10-24 11:18:00,45.8,29.6,30.01,West,268,5.0,7.0,53,0.00,,,0.00,213,Wunderground v.1.15,2013-10-24 15:18:00,
2013-10-24 11:19:00,45.9,30.2,30.01,WSW,238,5.0,7.0,54,0.00,,,0.00,213,Wunderground v.1.15,2013-10-24 15:19:00,
2013-10-24 11:20:00,46.0,29.8,30.02,West,279,5.0,5.0,53,0.00,,,0.00,686,Wunderground v.1.15,2013-10-24 15:20:00,
2013-10-24 11:21:00,46.1,30.4,30.01,WNW,290,5.0,5.0,54,0.00,,,0.00,691,Wunderground v.1.15,2013-10-24 15:21:00,
2013-10-24 11:23:00,46.3,30.1,30.01,WSW,247,4.0,6.0,53,0.00,,,0.00,694,Wunderground v.1.15,2013-10-24 15:23:00,
2013-10-24 11:25:00,46.5,29.8,30.01,West,281,5.0,6.0,52,0.00,,,0.00,694,Wunderground v.1.15,2013-10-24 15:25:00,
2013-10-24 11:27:00,46.6,29.4,30.01,WNW,290,5.0,8.0,51,0.00,,,0.00,686,Wunderground v.1.15,2013-10-24 15:27:00,
2013-10-24 11:29:00,46.7,29.5,30.01,WNW,298,6.0,8.0,51,0.00,,,0.00,703,Wunderground v.1.15,2013-10-24 15:29:00,
2013-10-24 11:30:00,46.6,29.4,30.01,WNW,293,6.0,6.0,51,0.00,,,0.00,703,Wunderground v.1.15,2013-10-24 15:30:00,
2013-10-24 11:31:00,46.7,29.5,30.01,WSW,242,6.0,11.0,51,0.00,,,0.00,703,Wunderground v.1.15,2013-10-24 15:31:00,
2013-10-24 11:33:00,46.7,29.5,30.01,WSW,246,6.0,11.0,51,0.00,,,0.00,703,Wunderground v.1.15,2013-10-24 15:33:00,
2013-10-24 11:34:00,46.7,29.5,30.01,NW,309,6.0,11.0,51,0.00,,,0.00,726,Wunderground v.1.15,2013-10-24 15:34:00,
2013-10-24 11:36:00,46.6,29.4,30.01,NNW,348,6.0,11.0,51,0.00,,,0.00,234,Wunderground v.1.15,2013-10-24 15:36:00,
2013-10-24 11:38:00,46.7,29.5,30.01,WSW,256,6.0,11.0,51,0.00,,,0.00,330,Wunderground v.1.15,2013-10-24 15:38:00,
2013-10-24 11:39:00,46.7,29.5,30.01,SSW,198,5.0,11.0,51,0.00,,,0.00,700,Wunderground v.1.15,2013-10-24 15:39:00,
2013-10-24 11:40:00,46.8,29.6,30.01,WSW,245,5.0,5.0,51,0.00,,,0.00,631,Wunderground v.1.15,2013-10-24 15:40:00,
2013-10-24 11:43:00,47.4,30.2,30.01,West,267,4.0,9.0,51,0.00,,,0.00,758,Wunderground v.1.15,2013-10-24 15:43:00,
2013-10-24 11:45:00,47.6,29.4,30.01,NW,306,4.0,9.0,49,0.00,,,0.00,729,Wunderground v.1.15,2013-10-24 15:45:00,
2013-10-24 11:48:00,47.8,30.0,30.01,NW,314,4.0,9.0,50,0.00,,,0.00,759,Wunderground v.1.15,2013-10-24 15:48:00,
2013-10-24 11:49:00,48.0,30.7,30.01,WNW,288,4.0,9.0,51,0.00,,,0.00,761,Wunderground v.1.15,2013-10-24 15:49:00,
2013-10-24 11:52:00,48.2,29.4,30.01,West,270,5.0,8.0,48,0.00,,,0.00,594,Wunderground v.1.15,2013-10-24 15:52:00,
2013-10-24 11:53:00,48.3,30.0,30.01,West,261,5.0,8.0,49,0.00,,,0.00,724,Wunderground v.1.15,2013-10-24 15:53:00,
2013-10-24 11:54:00,48.3,30.0,30.01,WNW,295,5.0,8.0,49,0.00,,,0.00,701,Wunderground v.1.15,2013-10-24 15:54:00,
2013-10-24 11:56:00,48.2,29.4,30.01,West,261,5.0,9.0,48,0.00,,,0.00,701,Wunderground v.1.15,2013-10-24 15:56:00,
2013-10-24 11:58:00,47.8,29.0,30.01,NW,313,6.0,9.0,48,0.00,,,0.00,701,Wunderground v.1.15,2013-10-24 15:58:00,
2013-10-24 12:00:00,47.4,29.2,30.01,WNW,303,6.0,6.0,49,0.00,,,0.00,281,Wunderground v.1.15,2013-10-24 16:00:00,
2013-10-24 12:03:00,47.1,28.9,30.01,NW,321,6.0,11.0,49,0.00,,,0.00,227,Wunderground v.1.15,2013-10-24 16:03:00,
2013-10-24 12:04:00,47.0,28.8,30.01,West,261,6.0,11.0,49,0.00,,,0.00,260,Wunderground v.1.15,2013-10-24 16:04:00,
2013-10-24 12:07:00,46.9,28.7,30.01,WNW,290,6.0,11.0,49,0.00,,,0.00,680,Wunderground v.1.15,2013-10-24 16:07:00,
2013-10-24 12:10:00,47.0,28.8,30.01,WNW,283,6.0,8.0,49,0.00,,,0.00,666,Wunderground v.1.15,2013-10-24 16:10:00,
2013-10-24 12:12:00,47.2,29.0,30.01,North,351,6.0,8.0,49,0.00,,,0.00,700,Wunderground v.1.15,2013-10-24 16:12:00,
2013-10-24 12:13:00,47.4,29.7,30.01,NNW,328,6.0,8.0,50,0.00,,,0.00,701,Wunderground v.1.15,2013-10-24 16:13:00,
2013-10-24 12:15:00,47.7,29.5,30.01,WNW,300,6.0,8.0,49,0.00,,,0.00,693,Wunderground v.1.15,2013-10-24 16:15:00,
2013-10-24 12:18:00,47.9,29.1,30.01,NNW,343,5.0,8.0,48,0.00,,,0.00,661,Wunderground v.1.15,2013-10-24 16:18:00,
2013-10-24 12:19:00,47.9,29.6,30.01,WNW,283,5.0,8.0,49,0.00,,,0.00,643,Wunderground v.1.15,2013-10-24 16:19:00,
2013-10-24 12:22:00,48.1,29.8,30.01,West,266,5.0,8.0,49,0.00,,,0.00,88,Wunderground v.1.15,2013-10-24 16:22:00,
2013-10-24 12:24:00,48.0,29.2,30.01,WNW,284,5.0,8.0,48,0.00,,,0.00,88,Wunderground v.1.15,2013-10-24 16:24:00,
2013-10-24 12:26:00,47.8,29.0,30.01,WNW,290,5.0,8.0,48,0.00,,,0.00,88,Wunderground v.1.15,2013-10-24 16:26:00,
2013-10-24 12:28:00,47.5,28.8,30.01,West,268,5.0,9.0,48,0.00,,,0.00,640,Wunderground v.1.15,2013-10-24 16:28:00,
2013-10-24 12:30:00,47.5,29.3,30.01,WNW,300,5.0,5.0,49,0.00,,,0.00,638,Wunderground v.1.15,2013-10-24 16:30:00,
2013-10-24 12:31:00,47.4,29.2,30.01,WNW,284,5.0,8.0,49,0.00,,,0.00,638,Wunderground v.1.15,2013-10-24 16:31:00,
2013-10-24 12:33:00,47.2,29.0,30.01,NW,304,6.0,11.0,49,0.00,,,0.00,206,Wunderground v.1.15,2013-10-24 16:33:00,
2013-10-24 12:35:00,47.1,28.9,30.01,WNW,293,6.0,11.0,49,0.00,,,0.00,221,Wunderground v.1.15,2013-10-24 16:35:00,
2013-10-24 12:36:00,47.1,29.9,30.01,WNW,286,6.0,13.0,51,0.00,,,0.00,717,Wunderground v.1.15,2013-10-24 16:36:00,
2013-10-24 12:37:00,47.2,29.5,30.00,NW,308,6.0,13.0,50,0.00,,,0.00,684,Wunderground v.1.15,2013-10-24 16:37:00,
2013-10-24 12:38:00,47.3,29.6,30.01,NW,319,6.0,13.0,50,0.00,,,0.00,708,Wunderground v.1.15,2013-10-24 16:38:00,
2013-10-24 12:41:00,47.6,29.4,30.00,NW,319,6.0,7.0,49,0.00,,,0.00,654,Wunderground v.1.15,2013-10-24 16:41:00,
2013-10-24 12:43:00,47.6,29.9,30.00,WNW,291,6.0,7.0,50,0.00,,,0.00,654,Wunderground v.1.15,2013-10-24 16:43:00,
2013-10-24 12:44:00,47.6,29.9,30.01,North,360,6.0,9.0,50,0.00,,,0.00,654,Wunderground v.1.15,2013-10-24 16:44:00,
2013-10-24 12:46:00,47.6,29.4,30.00,NNW,330,6.0,9.0,49,0.00,,,0.00,619,Wunderground v.1.15,2013-10-24 16:46:00,
2013-10-24 12:47:00,47.7,30.0,30.01,NW,306,6.0,9.0,50,0.00,,,0.00,255,Wunderground v.1.15,2013-10-24 16:47:00,
2013-10-24 12:48:00,47.7,30.0,30.00,North,355,6.0,11.0,50,0.00,,,0.00,255,Wunderground v.1.15,2013-10-24 16:48:00,
2013-10-24 12:49:00,47.7,30.0,30.00,WNW,285,6.0,11.0,50,0.00,,,0.00,589,Wunderground v.1.15,2013-10-24 16:49:00,
2013-10-24 12:50:00,47.7,30.0,30.01,West,279,6.0,6.0,50,0.00,,,0.00,589,Wunderground v.1.15,2013-10-24 16:50:00,
2013-10-24 12:51:00,47.6,30.3,30.01,NW,313,6.0,6.0,51,0.00,,,0.00,241,Wunderground v.1.15,2013-10-24 16:51:00,
2013-10-24 12:54:00,47.8,30.0,30.01,WNW,298,6.0,9.0,50,0.00,,,0.00,192,Wunderground v.1.15,2013-10-24 16:54:00,
2013-10-24 12:57:00,47.4,29.7,30.01,North,5,6.0,9.0,50,0.00,,,0.00,188,Wunderground v.1.15,2013-10-24 16:57:00,
2013-10-24 12:58:00,47.2,29.5,30.01,NW,309,6.0,9.0,50,0.00,,,0.00,171,Wunderground v.1.15,2013-10-24 16:58:00,
2013-10-24 13:03:00,46.4,29.2,30.01,WSW,240,7.0,7.0,51,0.00,,,0.00,438,Wunderground v.1.15,2013-10-24 17:03:00,
2013-10-24 13:04:00,46.4,29.2,30.00,WNW,292,7.0,7.0,51,0.00,,,0.00,438,Wunderground v.1.15,2013-10-24 17:04:00,
2013-10-24 13:05:00,46.4,29.7,30.01,West,277,7.0,7.0,52,0.00,,,0.00,294,Wunderground v.1.15,2013-10-24 17:05:00,
2013-10-24 13:06:00,46.5,30.3,30.01,NW,313,6.0,8.0,53,0.00,,,0.00,253,Wunderground v.1.15,2013-10-24 17:06:00,
2013-10-24 13:08:00,46.5,29.8,30.01,NW,318,7.0,8.0,52,0.00,,,0.00,279,Wunderground v.1.15,2013-10-24 17:08:00,
2013-10-24 13:09:00,46.6,29.9,30.01,WNW,288,6.0,8.0,52,0.00,,,0.00,279,Wunderground v.1.15,2013-10-24 17:09:00,
2013-10-24 13:10:00,46.7,30.5,30.01,NW,319,6.0,6.0,53,0.00,,,0.00,279,Wunderground v.1.15,2013-10-24 17:10:00,
2013-10-24 13:11:00,46.8,30.6,30.01,West,281,6.0,8.0,53,0.00,,,0.00,267,Wunderground v.1.15,2013-10-24 17:11:00,
2013-10-24 13:14:00,46.6,29.9,30.01,WNW,292,6.0,8.0,52,0.00,,,0.00,262,Wunderground v.1.15,2013-10-24 17:14:00,
2013-10-24 13:15:00,46.5,30.3,30.01,NW,309,6.0,8.0,53,0.00,,,0.00,271,Wunderground v.1.15,2013-10-24 17:15:00,
2013-10-24 13:16:00,46.5,30.3,30.01,North,5,7.0,8.0,53,0.00,,,0.00,271,Wunderground v.1.15,2013-10-24 17:16:00,
2013-10-24 13:17:00,46.5,29.8,30.01,NW,311,6.0,8.0,52,0.00,,,0.00,552,Wunderground v.1.15,2013-10-24 17:17:00,
2013-10-24 13:20:00,46.6,29.9,30.01,WNW,292,6.0,6.0,52,0.00,,,0.00,322,Wunderground v.1.15,2013-10-24 17:20:00,
2013-10-24 13:23:00,46.6,29.9,30.00,WNW,303,6.0,7.0,52,0.00,,,0.00,436,Wunderground v.1.15,2013-10-24 17:23:00,
2013-10-24 13:24:00,46.5,29.8,30.00,WNW,298,6.0,7.0,52,0.00,,,0.00,436,Wunderground v.1.15,2013-10-24 17:24:00,
2013-10-24 13:26:00,46.6,29.9,30.00,North,355,6.0,9.0,52,0.00,,,0.00,257,Wunderground v.1.15,2013-10-24 17:26:00,
2013-10-24 13:27:00,46.6,29.9,30.01,West,271,7.0,9.0,52,0.00,,,0.00,267,Wunderground v.1.15,2013-10-24 17:27:00,
2013-10-24 13:28:00,46.6,29.9,30.00,West,276,7.0,9.0,52,0.00,,,0.00,264,Wunderground v.1.15,2013-10-24 17:28:00,
2013-10-24 13:30:00,46.6,29.9,30.00,WNW,299,6.0,6.0,52,0.00,,,0.00,234,Wunderground v.1.15,2013-10-24 17:30:00,
2013-10-24 13:33:00,46.7,30.5,30.00,WNW,303,6.0,6.0,53,0.00,,,0.00,243,Wunderground v.1.15,2013-10-24 17:33:00,
2013-10-24 13:36:00,46.9,30.2,30.00,NNE,16,5.0,6.0,52,0.00,,,0.00,243,Wunderground v.1.15,2013-10-24 17:36:00,
2013-10-24 13:39:00,46.8,29.6,30.01,North,5,5.0,6.0,51,0.00,,,0.00,237,Wunderground v.1.15,2013-10-24 17:39:00,
2013-10-24 13:40:00,46.7,29.5,30.00,NW,309,5.0,5.0,51,0.00,,,0.00,214,Wunderground v.1.15,2013-10-24 17:40:00,
2013-10-24 13:41:00,46.6,29.4,30.00,West,279,5.0,5.0,51,0.00,,,0.00,207,Wunderground v.1.15,2013-10-24 17:41:00,
2013-10-24 13:42:00,46.5,29.8,30.01,NW,323,5.0,5.0,52,0.00,,,0.00,197,Wunderground v.1.15,2013-10-24 17:42:00,
2013-10-24 13:46:00,46.5,28.8,30.01,WNW,283,4.0,9.0,50,0.00,,,0.00,190,Wunderground v.1.15,2013-10-24 17:46:00,
2013-10-24 13:47:00,46.4,28.8,30.00,NW,308,5.0,9.0,50,0.00,,,0.00,202,Wunderground v.1.15,2013-10-24 17:47:00,
2013-10-24 13:48:00,46.3,28.7,30.00,WNW,284,5.0,9.0,50,0.00,,,0.00,220,Wunderground v.1.15,2013-10-24 17:48:00,
2013-10-24 13:49:00,46.3,29.6,30.01,NW,304,5.0,9.0,52,0.00,,,0.00,311,Wunderground v.1.15,2013-10-24 17:49:00,
2013-10-24 13:51:00,46.4,29.2,30.00,NW,311,5.0,5.0,51,0.00,,,0.00,276,Wunderground v.1.15,2013-10-24 17:51:00,
2013-10-24 13:52:00,46.4,29.7,30.01,WNW,299,5.0,5.0,52,0.00,,,0.00,260,Wunderground v.1.15,2013-10-24 17:52:00,
2013-10-24 13:56:00,46.5,29.3,30.00,WSW,257,6.0,7.0,51,0.00,,,0.00,218,Wunderground v.1.15,2013-10-24 17:56:00,
2013-10-24 13:58:00,46.5,29.3,30.00,North,349,5.0,7.0,51,0.00,,,0.00,230,Wunderground v.1.15,2013-10-24 17:58:00,
2013-10-24 13:59:00,46.5,29.3,30.00,NW,310,5.0,7.0,51,0.00,,,0.00,232,Wunderground v.1.15,2013-10-24 17:59:00,
2013-10-24 14:04:00,46.4,28.8,30.00,WNW,288,5.0,7.0,50,0.00,,,0.00,330,Wunderground v.1.15,2013-10-24 18:04:00,
2013-10-24 14:05:00,46.4,29.2,30.00,West,279,5.0,7.0,51,0.00,,,0.00,330,Wunderground v.1.15,2013-10-24 18:05:00,
2013-10-24 14:07:00,46.4,29.2,30.00,NNE,30,5.0,8.0,51,0.00,,,0.00,214,Wunderground v.1.15,2013-10-24 18:07:00,
2013-10-24 14:09:00,46.5,28.8,30.00,WNW,285,5.0,8.0,50,0.00,,,0.00,188,Wunderground v.1.15,2013-10-24 18:09:00,
2013-10-24 14:10:00,46.5,28.8,30.00,NW,325,5.0,6.0,50,0.00,,,0.00,185,Wunderground v.1.15,2013-10-24 18:10:00,
2013-10-24 14:13:00,46.3,28.7,30.00,WNW,292,4.0,8.0,50,0.00,,,0.00,174,Wunderground v.1.15,2013-10-24 18:13:00,
2013-10-24 14:16:00,46.1,29.4,30.00,WNW,286,5.0,8.0,52,0.00,,,0.00,155,Wunderground v.1.15,2013-10-24 18:16:00,
2013-10-24 14:17:00,46.2,29.5,30.00,NW,306,4.0,8.0,52,0.00,,,0.00,163,Wunderground v.1.15,2013-10-24 18:17:00,
2013-10-24 14:21:00,46.1,29.4,30.00,West,277,4.0,5.0,52,0.00,,,0.00,127,Wunderground v.1.15,2013-10-24 18:21:00,
2013-10-24 14:22:00,46.1,29.0,30.00,WNW,288,4.0,6.0,51,0.00,,,0.00,125,Wunderground v.1.15,2013-10-24 18:22:00,
2013-10-24 14:23:00,46.1,29.0,30.00,WNW,298,4.0,6.0,51,0.00,,,0.00,121,Wunderground v.1.15,2013-10-24 18:23:00,
2013-10-24 14:24:00,46.1,29.9,30.01,WNW,296,4.0,6.0,53,0.00,,,0.00,105,Wunderground v.1.15,2013-10-24 18:24:00,
2013-10-24 14:26:00,46.1,29.4,30.00,West,266,4.0,6.0,52,0.00,,,0.00,90,Wunderground v.1.15,2013-10-24 18:26:00,
2013-10-24 14:30:00,46.2,29.5,30.00,WNW,300,3.0,9.0,52,0.00,,,0.00,76,Wunderground v.1.15,2013-10-24 18:30:00,
2013-10-24 14:31:00,46.1,29.4,30.00,West,267,4.0,9.0,52,0.00,,,0.00,81,Wunderground v.1.15,2013-10-24 18:31:00,
2013-10-24 14:32:00,46.1,29.4,30.00,WNW,294,4.0,9.0,52,0.00,,,0.00,88,Wunderground v.1.15,2013-10-24 18:32:00,
2013-10-24 14:33:00,46.0,28.9,30.00,West,269,4.0,9.0,51,0.00,,,0.00,93,Wunderground v.1.15,2013-10-24 18:33:00,
2013-10-24 14:36:00,45.9,29.2,30.01,WNW,290,5.0,9.0,52,0.00,,,0.00,86,Wunderground v.1.15,2013-10-24 18:36:00,
2013-10-24 14:38:00,45.9,29.2,30.01,NW,306,5.0,9.0,52,0.00,,,0.00,67,Wunderground v.1.15,2013-10-24 18:38:00,
2013-10-24 14:39:00,45.8,29.2,30.01,WNW,291,5.0,9.0,52,0.00,,,0.00,60,Wunderground v.1.15,2013-10-24 18:39:00,
2013-10-24 14:43:00,45.8,29.2,30.01,West,271,5.0,8.0,52,0.00,,,0.00,69,Wunderground v.1.15,2013-10-24 18:43:00,
2013-10-24 14:44:00,45.8,29.6,30.01,WNW,296,5.0,8.0,53,0.00,,,0.00,79,Wunderground v.1.15,2013-10-24 18:44:00,
2013-10-24 14:46:00,45.8,30.1,30.01,West,267,5.0,8.0,54,0.00,,,0.00,132,Wunderground v.1.15,2013-10-24 18:46:00,
2013-10-24 14:50:00,45.9,29.7,30.01,WNW,294,5.0,5.0,53,0.00,,,0.00,156,Wunderground v.1.15,2013-10-24 18:50:00,
2013-10-24 14:51:00,45.9,29.7,30.01,WNW,294,4.0,5.0,53,0.00,,,0.00,146,Wunderground v.1.15,2013-10-24 18:51:00,
2013-10-24 14:52:00,46.0,29.3,30.01,WSW,248,4.0,5.0,52,0.00,,,0.00,134,Wunderground v.1.15,2013-10-24 18:52:00,
2013-10-24 14:54:00,46.1,29.9,30.01,North,5,4.0,6.0,53,0.00,,,0.00,118,Wunderground v.1.15,2013-10-24 18:54:00,
2013-10-24 14:56:00,46.1,29.4,30.01,NW,310,4.0,6.0,52,0.00,,,0.00,151,Wunderground v.1.15,2013-10-24 18:56:00,
2013-10-24 14:59:00,46.1,29.9,30.01,NW,308,4.0,6.0,53,0.00,,,0.00,195,Wunderground v.1.15,2013-10-24 18:59:00,
2013-10-24 15:01:00,46.2,29.5,30.01,NW,304,5.0,6.0,52,0.00,,,0.00,211,Wunderground v.1.15,2013-10-24 19:01:00,
2013-10-24 15:02:00,46.3,29.6,30.01,WNW,290,5.0,6.0,52,0.00,,,0.00,202,Wunderground v.1.15,2013-10-24 19:02:00,
2013-10-24 15:03:00,46.4,29.7,30.01,NW,304,5.0,6.0,52,0.00,,,0.00,190,Wunderground v.1.15,2013-10-24 19:03:00,
2013-10-24 15:05:00,46.5,30.3,30.01,NNW,331,4.0,6.0,53,0.00,,,0.00,163,Wunderground v.1.15,2013-10-24 19:05:00,
2013-10-24 15:06:00,46.5,29.3,30.01,WNW,303,4.0,6.0,51,0.00,,,0.00,146,Wunderground v.1.15,2013-10-24 19:06:00,
2013-10-24 15:07:00,46.5,29.8,30.01,NW,316,4.0,6.0,52,0.00,,,0.00,141,Wunderground v.1.15,2013-10-24 19:07:00,
2013-10-24 15:09:00,46.5,29.8,30.01,WNW,288,4.0,6.0,52,0.00,,,0.00,144,Wunderground v.1.15,2013-10-24 19:09:00,
2013-10-24 15:11:00,46.5,29.8,30.01,NW,313,5.0,6.0,52,0.00,,,0.00,121,Wunderground v.1.15,2013-10-24 19:11:00,
2013-10-24 15:14:00,46.5,30.3,30.01,West,265,4.0,6.0,53,0.00,,,0.00,70,Wunderground v.1.15,2013-10-24 19:14:00,
2013-10-24 15:16:00,46.6,29.4,30.01,SW,220,4.0,6.0,51,0.00,,,0.00,63,Wunderground v.1.15,2013-10-24 19:16:00,
2013-10-24 15:17:00,46.6,29.4,30.01,North,360,4.0,6.0,51,0.00,,,0.00,63,Wunderground v.1.15,2013-10-24 19:17:00,
2013-10-24 15:18:00,46.6,29.9,30.01,NE,46,4.0,6.0,52,0.00,,,0.00,62,Wunderground v.1.15,2013-10-24 19:18:00,
2013-10-24 15:21:00,46.6,29.9,30.01,WNW,292,3.0,5.0,52,0.00,,,0.00,63,Wunderground v.1.15,2013-10-24 19:21:00,
2013-10-24 15:24:00,46.2,30.0,30.02,WSW,254,4.0,10.0,53,0.00,,,0.00,74,Wunderground v.1.15,2013-10-24 19:24:00,
2013-10-24 15:25:00,46.0,30.3,30.02,WNW,302,5.0,10.0,54,0.00,,,0.00,77,Wunderground v.1.15,2013-10-24 19:25:00,
2013-10-24 15:26:00,45.9,30.2,30.02,WNW,300,5.0,10.0,54,0.00,,,0.00,83,Wunderground v.1.15,2013-10-24 19:26:00,
2013-10-24 15:27:00,45.7,30.4,30.02,West,281,5.0,10.0,55,0.00,,,0.00,84,Wunderground v.1.15,2013-10-24 19:27:00,
2013-10-24 15:28:00,45.7,30.4,30.02,WNW,285,5.0,10.0,55,0.00,,,0.00,83,Wunderground v.1.15,2013-10-24 19:28:00,
2013-10-24 15:30:00,45.7,30.9,30.02,WNW,301,4.0,4.0,56,0.00,,,0.00,62,Wunderground v.1.15,2013-10-24 19:30:00,
2013-10-24 15:33:00,45.7,31.3,30.02,WSW,246,4.0,4.0,57,0.00,,,0.00,53,Wunderground v.1.15,2013-10-24 19:33:00,
2013-10-24 15:35:00,45.8,31.4,30.01,SE,136,3.0,4.0,57,0.00,,,0.00,49,Wunderground v.1.15,2013-10-24 19:35:00,
2013-10-24 15:37:00,45.9,31.5,30.01,SSW,192,3.0,4.0,57,0.00,,,0.00,47,Wunderground v.1.15,2013-10-24 19:37:00,
2013-10-24 15:39:00,46.0,31.2,30.01,WNW,296,3.0,7.0,56,0.00,,,0.00,49,Wunderground v.1.15,2013-10-24 19:39:00,
2013-10-24 15:40:00,46.1,31.3,30.01,West,275,3.0,3.0,56,0.00,,,0.00,51,Wunderground v.1.15,2013-10-24 19:40:00,
2013-10-24 15:41:00,46.1,31.3,30.01,North,10,3.0,3.0,56,0.00,,,0.00,54,Wunderground v.1.15,2013-10-24 19:41:00,
2013-10-24 15:45:00,46.3,31.0,30.01,WNW,284,3.0,4.0,55,0.00,,,0.00,72,Wunderground v.1.15,2013-10-24 19:45:00,
2013-10-24 15:46:00,46.4,31.1,30.01,WSW,254,3.0,4.0,55,0.00,,,0.00,97,Wunderground v.1.15,2013-10-24 19:46:00,
2013-10-24 15:47:00,46.5,31.2,30.01,West,260,3.0,4.0,55,0.00,,,0.00,104,Wunderground v.1.15,2013-10-24 19:47:00,
2013-10-24 15:48:00,46.5,31.2,30.01,WNW,296,4.0,6.0,55,0.00,,,0.00,113,Wunderground v.1.15,2013-10-24 19:48:00,
2013-10-24 15:50:00,46.7,30.5,30.01,WNW,283,4.0,4.0,53,0.00,,,0.00,127,Wunderground v.1.15,2013-10-24 19:50:00,
2013-10-24 15:54:00,47.2,31.4,30.01,WSW,240,4.0,6.0,54,0.00,,,0.00,107,Wunderground v.1.15,2013-10-24 19:54:00,
2013-10-24 15:56:00,47.4,31.1,30.01,WNW,297,4.0,8.0,53,0.00,,,0.00,111,Wunderground v.1.15,2013-10-24 19:56:00,
2013-10-24 15:58:00,47.4,30.6,30.01,NNW,329,4.0,9.0,52,0.00,,,0.00,107,Wunderground v.1.15,2013-10-24 19:58:00,
2013-10-24 15:59:00,47.3,30.5,30.01,West,261,5.0,9.0,52,0.00,,,0.00,98,Wunderground v.1.15,2013-10-24 19:59:00,
2013-10-24 16:00:00,47.2,30.5,30.02,WNW,292,5.0,5.0,52,0.00,,,0.00,95,Wunderground v.1.15,2013-10-24 20:00:00,
2013-10-24 16:02:00,47.1,30.8,30.01,North,355,5.0,5.0,53,0.00,,,0.00,90,Wunderground v.1.15,2013-10-24 20:02:00,
2013-10-24 16:03:00,47.2,30.5,30.02,WNW,289,5.0,5.0,52,0.00,,,0.00,90,Wunderground v.1.15,2013-10-24 20:03:00,
2013-10-24 16:06:00,47.0,29.8,30.02,West,259,7.0,9.0,51,0.00,,,0.00,93,Wunderground v.1.15,2013-10-24 20:06:00,
2013-10-24 16:10:00,47.0,29.3,30.02,West,277,6.0,6.0,50,0.00,,,0.00,127,Wunderground v.1.15,2013-10-24 20:10:00,
2013-10-24 16:12:00,47.0,28.8,30.02,SE,131,6.0,7.0,49,0.00,,,0.00,141,Wunderground v.1.15,2013-10-24 20:12:00,
2013-10-24 16:13:00,47.0,28.8,30.02,WSW,246,6.0,10.0,49,0.00,,,0.00,141,Wunderground v.1.15,2013-10-24 20:13:00,
2013-10-24 16:17:00,46.9,28.7,30.02,WNW,290,5.0,10.0,49,0.00,,,0.00,135,Wunderground v.1.15,2013-10-24 20:17:00,
2013-10-24 16:18:00,47.0,29.3,30.02,West,273,5.0,10.0,50,0.00,,,0.00,135,Wunderground v.1.15,2013-10-24 20:18:00,
2013-10-24 16:19:00,47.0,29.3,30.02,NNW,337,5.0,10.0,50,0.00,,,0.00,137,Wunderground v.1.15,2013-10-24 20:19:00,
2013-10-24 16:20:00,47.1,29.4,30.02,WNW,295,5.0,5.0,50,0.00,,,0.00,141,Wunderground v.1.15,2013-10-24 20:20:00,
2013-10-24 16:24:00,47.3,29.6,30.02,WNW,284,4.0,6.0,50,0.00,,,0.00,125,Wunderground v.1.15,2013-10-24 20:24:00,
2013-10-24 16:26:00,47.3,29.6,30.02,SW,235,4.0,6.0,50,0.00,,,0.00,116,Wunderground v.1.15,2013-10-24 20:26:00,
2013-10-24 16:29:00,47.2,29.5,30.02,SE,134,4.0,9.0,50,0.00,,,0.00,118,Wunderground v.1.15,2013-10-24 20:29:00,
2013-10-24 16:30:00,47.1,29.4,30.02,West,281,4.0,8.0,50,0.00,,,0.00,116,Wunderground v.1.15,2013-10-24 20:30:00,
2013-10-24 16:32:00,46.9,29.7,30.02,NW,306,4.0,8.0,51,0.00,,,0.00,95,Wunderground v.1.15,2013-10-24 20:32:00,
2013-10-24 16:35:00,46.7,30.0,30.02,WNW,292,5.0,8.0,52,0.00,,,0.00,74,Wunderground v.1.15,2013-10-24 20:35:00,
2013-10-24 16:36:00,46.6,29.9,30.02,WNW,286,5.0,8.0,52,0.00,,,0.00,72,Wunderground v.1.15,2013-10-24 20:36:00,
2013-10-24 16:37:00,46.5,30.3,30.02,WNW,288,5.0,8.0,53,0.00,,,0.00,70,Wunderground v.1.15,2013-10-24 20:37:00,
2013-10-24 16:38:00,46.4,30.2,30.02,NW,308,5.0,8.0,53,0.00,,,0.00,72,Wunderground v.1.15,2013-10-24 20:38:00,
2013-10-24 16:39:00,46.3,30.1,30.02,NNW,334,5.0,8.0,53,0.00,,,0.00,72,Wunderground v.1.15,2013-10-24 20:39:00,
2013-10-24 16:40:00,46.3,30.1,30.02,NW,315,5.0,6.0,53,0.00,,,0.00,72,Wunderground v.1.15,2013-10-24 20:40:00,
2013-10-24 16:43:00,46.1,30.4,30.02,WNW,294,5.0,6.0,54,0.00,,,0.00,69,Wunderground v.1.15,2013-10-24 20:43:00,
2013-10-24 16:44:00,46.2,30.5,30.02,West,280,5.0,6.0,54,0.00,,,0.00,70,Wunderground v.1.15,2013-10-24 20:44:00,
2013-10-24 16:45:00,46.2,30.5,30.03,NNE,17,5.0,6.0,54,0.00,,,0.00,70,Wunderground v.1.15,2013-10-24 20:45:00,
2013-10-24 16:46:00,46.2,30.5,30.03,West,269,4.0,6.0,54,0.00,,,0.00,74,Wunderground v.1.15,2013-10-24 20:46:00,
2013-10-24 16:50:00,46.2,30.5,30.03,NW,313,4.0,5.0,54,0.00,,,0.00,79,Wunderground v.1.15,2013-10-24 20:50:00,
2013-10-24 16:51:00,46.2,30.5,30.03,NW,324,4.0,6.0,54,0.00,,,0.00,79,Wunderground v.1.15,2013-10-24 20:51:00,
2013-10-24 16:55:00,46.3,30.5,30.03,NW,317,3.0,6.0,54,0.00,,,0.00,70,Wunderground v.1.15,2013-10-24 20:55:00,
2013-10-24 16:56:00,46.4,30.6,30.03,North,360,3.0,6.0,54,0.00,,,0.00,69,Wunderground v.1.15,2013-10-24 20:56:00,
2013-10-24 17:00:00,46.4,30.2,30.03,North,349,4.0,4.0,53,0.00,,,0.00,76,Wunderground v.1.15,2013-10-24 21:00:00,
2013-10-24 17:01:00,46.4,30.2,30.03,NW,316,4.0,4.0,53,0.00,,,0.00,76,Wunderground v.1.15,2013-10-24 21:01:00,
2013-10-24 17:02:00,46.5,30.3,30.03,North,355,4.0,4.0,53,0.00,,,0.00,79,Wunderground v.1.15,2013-10-24 21:02:00,
2013-10-24 17:03:00,46.5,30.3,30.03,SSE,147,4.0,4.0,53,0.00,,,0.00,79,Wunderground v.1.15,2013-10-24 21:03:00,
2013-10-24 17:05:00,46.5,29.3,30.03,NW,306,4.0,5.0,51,0.00,,,0.00,69,Wunderground v.1.15,2013-10-24 21:05:00,
2013-10-24 17:07:00,46.5,28.8,30.03,West,274,4.0,5.0,50,0.00,,,0.00,60,Wunderground v.1.15,2013-10-24 21:07:00,
2013-10-24 17:10:00,46.5,28.8,30.03,West,275,4.0,5.0,50,0.00,,,0.00,44,Wunderground v.1.15,2013-10-24 21:10:00,
2013-10-24 17:11:00,46.4,28.8,30.03,WNW,301,4.0,5.0,50,0.00,,,0.00,46,Wunderground v.1.15,2013-10-24 21:11:00,
2013-10-24 17:13:00,46.4,28.8,30.03,WNW,296,4.0,5.0,50,0.00,,,0.00,53,Wunderground v.1.15,2013-10-24 21:13:00,
2013-10-24 17:17:00,46.4,28.8,30.03,SSW,213,4.0,5.0,50,0.00,,,0.00,53,Wunderground v.1.15,2013-10-24 21:17:00,
2013-10-24 17:18:00,46.4,28.3,30.03,WNW,289,4.0,5.0,49,0.00,,,0.00,46,Wunderground v.1.15,2013-10-24 21:18:00,
2013-10-24 17:19:00,46.4,28.3,30.03,WNW,286,3.0,5.0,49,0.00,,,0.00,40,Wunderground v.1.15,2013-10-24 21:19:00,
2013-10-24 17:20:00,46.4,28.3,30.03,NW,307,3.0,3.0,49,0.00,,,0.00,30,Wunderground v.1.15,2013-10-24 21:20:00,
2013-10-24 17:22:00,46.3,28.2,30.03,NW,325,4.0,4.0,49,0.00,,,0.00,23,Wunderground v.1.15,2013-10-24 21:22:00,
2013-10-24 17:23:00,46.2,28.1,30.03,NW,319,4.0,4.0,49,0.00,,,0.00,21,Wunderground v.1.15,2013-10-24 21:23:00,
2013-10-24 17:24:00,46.2,28.6,30.03,NW,310,4.0,5.0,50,0.00,,,0.00,19,Wunderground v.1.15,2013-10-24 21:24:00,
2013-10-24 17:29:00,46.1,28.0,30.04,WNW,288,4.0,6.0,49,0.00,,,0.00,12,Wunderground v.1.15,2013-10-24 21:29:00,
2013-10-24 17:30:00,46.0,28.4,30.04,WSW,246,4.0,6.0,50,0.00,,,0.00,12,Wunderground v.1.15,2013-10-24 21:30:00,
2013-10-24 17:31:00,46.0,27.9,30.04,West,270,4.0,7.0,49,0.00,,,0.00,12,Wunderground v.1.15,2013-10-24 21:31:00,
2013-10-24 17:34:00,45.9,27.3,30.04,West,277,5.0,7.0,48,0.00,,,0.00,12,Wunderground v.1.15,2013-10-24 21:34:00,
2013-10-24 17:35:00,45.9,27.8,30.04,NW,325,5.0,7.0,49,0.00,,,0.00,14,Wunderground v.1.15,2013-10-24 21:35:00,
2013-10-24 17:38:00,45.8,27.7,30.04,West,277,6.0,12.0,49,0.00,,,0.00,16,Wunderground v.1.15,2013-10-24 21:38:00,
2013-10-24 17:39:00,45.8,27.7,30.04,NW,323,6.0,7.0,49,0.00,,,0.00,18,Wunderground v.1.15,2013-10-24 21:39:00,
2013-10-24 17:42:00,45.8,27.7,30.04,NW,306,7.0,8.0,49,0.00,,,0.00,18,Wunderground v.1.15,2013-10-24 21:42:00,
2013-10-24 17:43:00,45.8,27.7,30.04,WNW,300,6.0,8.0,49,0.00,,,0.00,18,Wunderground v.1.15,2013-10-24 21:43:00,
2013-10-24 17:46:00,45.8,27.2,30.04,WNW,292,6.0,8.0,48,0.00,,,0.00,16,Wunderground v.1.15,2013-10-24 21:46:00,
2013-10-24 17:48:00,45.7,27.6,30.04,WNW,302,5.0,8.0,49,0.00,,,0.00,16,Wunderground v.1.15,2013-10-24 21:48:00,
2013-10-24 17:49:00,45.7,27.6,30.04,WNW,287,5.0,7.0,49,0.00,,,0.00,14,Wunderground v.1.15,2013-10-24 21:49:00,
2013-10-24 17:52:00,45.7,27.6,30.04,WNW,293,5.0,7.0,49,0.00,,,0.00,11,Wunderground v.1.15,2013-10-24 21:52:00,
2013-10-24 17:53:00,45.7,27.6,30.04,West,264,5.0,7.0,49,0.00,,,0.00,11,Wunderground v.1.15,2013-10-24 21:53:00,
2013-10-24 17:54:00,45.7,27.6,30.04,NW,309,5.0,10.0,49,0.00,,,0.00,9,Wunderground v.1.15,2013-10-24 21:54:00,
2013-10-24 17:55:00,45.6,27.5,30.04,NW,324,5.0,10.0,49,0.00,,,0.00,9,Wunderground v.1.15,2013-10-24 21:55:00,
2013-10-24 17:57:00,45.6,27.5,30.04,WNW,285,5.0,10.0,49,0.00,,,0.00,9,Wunderground v.1.15,2013-10-24 21:57:00,
2013-10-24 17:58:00,45.6,27.5,30.04,WNW,301,5.0,10.0,49,0.00,,,0.00,9,Wunderground v.1.15,2013-10-24 21:58:00,
2013-10-24 17:59:00,45.6,28.0,30.05,NW,320,5.0,10.0,50,0.00,,,0.00,9,Wunderground v.1.15,2013-10-24 21:59:00,
2013-10-24 18:00:00,45.6,28.0,30.05,West,280,5.0,5.0,50,0.00,,,0.00,7,Wunderground v.1.15,2013-10-24 22:00:00,
2013-10-24 18:02:00,45.6,28.0,30.05,WNW,299,4.0,5.0,50,0.00,,,0.00,7,Wunderground v.1.15,2013-10-24 22:02:00,
2013-10-24 18:03:00,45.6,28.0,30.05,WNW,286,4.0,5.0,50,0.00,,,0.00,7,Wunderground v.1.15,2013-10-24 22:03:00,
2013-10-24 18:06:00,45.5,27.9,30.05,NW,315,4.0,6.0,50,0.00,,,0.00,5,Wunderground v.1.15,2013-10-24 22:06:00,
2013-10-24 18:07:00,45.5,27.9,30.05,WNW,286,4.0,6.0,50,0.00,,,0.00,5,Wunderground v.1.15,2013-10-24 22:07:00,
2013-10-24 18:09:00,45.4,27.8,30.05,NW,304,4.0,7.0,50,0.00,,,0.00,5,Wunderground v.1.15,2013-10-24 22:09:00,
2013-10-24 18:13:00,45.2,28.1,30.05,NNE,22,5.0,6.0,51,0.00,,,0.00,0,Wunderground v.1.15,2013-10-24 22:13:00,
2013-10-24 18:14:00,45.2,28.1,30.05,West,265,5.0,6.0,51,0.00,,,0.00,0,Wunderground v.1.15,2013-10-24 22:14:00,
2013-10-24 18:15:00,45.1,28.0,30.06,WNW,283,5.0,6.0,51,0.00,,,0.00,0,Wunderground v.1.15,2013-10-24 22:15:00,
2013-10-24 18:18:00,45.0,27.9,30.06,NW,323,5.0,7.0,51,0.00,,,0.00,0,Wunderground v.1.15,2013-10-24 22:18:00,
2013-10-24 18:20:00,45.0,28.4,30.06,NNW,331,5.0,6.0,52,0.00,,,0.00,0,Wunderground v.1.15,2013-10-24 22:20:00,
2013-10-24 18:21:00,44.9,27.8,30.05,WNW,301,5.0,6.0,51,0.00,,,0.00,0,Wunderground v.1.15,2013-10-24 22:21:00,
2013-10-24 18:22:00,44.9,28.3,30.06,WNW,294,5.0,6.0,52,0.00,,,0.00,0,Wunderground v.1.15,2013-10-24 22:22:00,
2013-10-24 18:23:00,44.8,28.2,30.06,West,278,5.0,6.0,52,0.00,,,0.00,0,Wunderground v.1.15,2013-10-24 22:23:00,
2013-10-24 18:25:00,44.7,28.1,30.06,WNW,290,5.0,6.0,52,0.00,,,0.00,0,Wunderground v.1.15,2013-10-24 22:25:00,
2013-10-24 18:28:00,44.7,28.1,30.06,NW,309,5.0,7.0,52,0.00,,,0.00,0,Wunderground v.1.15,2013-10-24 22:28:00,
2013-10-24 18:29:00,44.6,28.0,30.06,NW,315,6.0,7.0,52,0.00,,,0.00,0,Wunderground v.1.15,2013-10-24 22:29:00,
2013-10-24 18:31:00,44.6,28.0,30.06,NW,325,5.0,7.0,52,0.00,,,0.00,0,Wunderground v.1.15,2013-10-24 22:31:00,
2013-10-24 18:33:00,44.6,28.0,30.06,NW,311,6.0,7.0,52,0.00,,,0.00,0,Wunderground v.1.15,2013-10-24 22:33:00,
2013-10-24 18:36:00,44.6,28.5,30.06,WNW,284,5.0,7.0,53,0.00,,,0.00,0,Wunderground v.1.15,2013-10-24 22:36:00,
2013-10-24 18:38:00,44.6,28.5,30.06,NW,320,5.0,7.0,53,0.00,,,0.00,0,Wunderground v.1.15,2013-10-24 22:38:00,
2013-10-24 18:39:00,44.6,28.5,30.06,NW,312,5.0,7.0,53,0.00,,,0.00,0,Wunderground v.1.15,2013-10-24 22:39:00,
2013-10-24 18:40:00,44.6,28.5,30.06,NW,321,5.0,5.0,53,0.00,,,0.00,0,Wunderground v.1.15,2013-10-24 22:40:00,
2013-10-24 18:46:00,44.5,28.4,30.07,NW,313,4.0,6.0,53,0.00,,,0.00,0,Wunderground v.1.15,2013-10-24 22:46:00,
2013-10-24 18:47:00,44.5,28.9,30.07,NE,39,4.0,6.0,54,0.00,,,0.00,0,Wunderground v.1.15,2013-10-24 22:47:00,
2013-10-24 18:48:00,44.5,28.9,30.07,NW,319,4.0,6.0,54,0.00,,,0.00,0,Wunderground v.1.15,2013-10-24 22:48:00,
2013-10-24 18:49:00,44.5,28.9,30.07,NW,315,4.0,6.0,54,0.00,,,0.00,0,Wunderground v.1.15,2013-10-24 22:49:00,
2013-10-24 18:53:00,44.6,29.0,30.07,WNW,288,4.0,5.0,54,0.00,,,0.00,0,Wunderground v.1.15,2013-10-24 22:53:00,
2013-10-24 18:54:00,44.6,29.0,30.07,WNW,285,4.0,5.0,54,0.00,,,0.00,0,Wunderground v.1.15,2013-10-24 22:54:00,
2013-10-24 18:55:00,44.6,29.0,30.07,WNW,288,4.0,5.0,54,0.00,,,0.00,0,Wunderground v.1.15,2013-10-24 22:55:00,
2013-10-24 18:59:00,44.6,29.4,30.07,WNW,303,3.0,5.0,55,0.00,,,0.00,0,Wunderground v.1.15,2013-10-24 22:59:00,
2013-10-24 19:00:00,44.5,29.3,30.07,WNW,296,3.0,3.0,55,0.00,,,0.00,0,Wunderground v.1.15,2013-10-24 23:00:00,
2013-10-24 19:01:00,44.6,29.4,30.07,NW,304,3.0,3.0,55,0.00,,,0.00,0,Wunderground v.1.15,2013-10-24 23:01:00,
2013-10-24 19:03:00,44.6,29.4,30.07,West,275,2.0,3.0,55,0.00,,,0.00,0,Wunderground v.1.15,2013-10-24 23:03:00,
2013-10-24 19:06:00,44.6,29.4,30.07,WNW,299,2.0,4.0,55,0.00,,,0.00,0,Wunderground v.1.15,2013-10-24 23:06:00,
2013-10-24 19:07:00,44.5,29.3,30.07,NW,321,2.0,4.0,55,0.00,,,0.00,0,Wunderground v.1.15,2013-10-24 23:07:00,
2013-10-24 19:08:00,44.5,29.3,30.07,WNW,283,2.0,4.0,55,0.00,,,0.00,0,Wunderground v.1.15,2013-10-24 23:08:00,
2013-10-24 19:09:00,44.6,29.4,30.07,NW,311,2.0,4.0,55,0.00,,,0.00,0,Wunderground v.1.15,2013-10-24 23:09:00,
2013-10-24 19:10:00,44.5,29.3,30.07,NW,304,2.0,5.0,55,0.00,,,0.00,0,Wunderground v.1.15,2013-10-24 23:10:00,
2013-10-24 19:13:00,44.5,29.3,30.07,WNW,301,3.0,5.0,55,0.00,,,0.00,0,Wunderground v.1.15,2013-10-24 23:13:00,
2013-10-24 19:14:00,44.4,29.2,30.07,West,263,3.0,5.0,55,0.00,,,0.00,0,Wunderground v.1.15,2013-10-24 23:14:00,
2013-10-24 19:15:00,44.4,29.2,30.07,West,266,3.0,5.0,55,0.00,,,0.00,0,Wunderground v.1.15,2013-10-24 23:15:00,
2013-10-24 19:17:00,44.3,29.6,30.08,WNW,293,3.0,5.0,56,0.00,,,0.00,0,Wunderground v.1.15,2013-10-24 23:17:00,
2013-10-24 19:19:00,44.3,29.6,30.08,WNW,290,3.0,5.0,56,0.00,,,0.00,0,Wunderground v.1.15,2013-10-24 23:19:00,
2013-10-24 19:21:00,44.2,29.5,30.08,WNW,303,3.0,3.0,56,0.00,,,0.00,0,Wunderground v.1.15,2013-10-24 23:21:00,
2013-10-24 19:22:00,44.1,29.4,30.08,West,273,2.0,3.0,56,0.00,,,0.00,0,Wunderground v.1.15,2013-10-24 23:22:00,
2013-10-24 19:25:00,44.0,29.3,30.08,WNW,295,2.0,3.0,56,0.00,,,0.00,0,Wunderground v.1.15,2013-10-24 23:25:00,
2013-10-24 19:27:00,44.0,29.7,30.08,WNW,282,2.0,3.0,57,0.00,,,0.00,0,Wunderground v.1.15,2013-10-24 23:27:00,
2013-10-24 19:28:00,43.9,29.6,30.08,WNW,288,2.0,4.0,57,0.00,,,0.00,0,Wunderground v.1.15,2013-10-24 23:28:00,
2013-10-24 19:30:00,43.8,29.5,30.08,WNW,296,3.0,3.0,57,0.00,,,0.00,0,Wunderground v.1.15,2013-10-24 23:30:00,
2013-10-24 19:34:00,43.6,29.8,30.08,NW,311,3.0,6.0,58,0.00,,,0.00,0,Wunderground v.1.15,2013-10-24 23:34:00,
2013-10-24 19:35:00,43.6,29.8,30.08,NW,311,3.0,6.0,58,0.00,,,0.00,0,Wunderground v.1.15,2013-10-24 23:35:00,
2013-10-24 19:36:00,43.5,29.7,30.08,WNW,289,3.0,6.0,58,0.00,,,0.00,0,Wunderground v.1.15,2013-10-24 23:36:00,
2013-10-24 19:37:00,43.4,29.6,30.08,West,277,3.0,6.0,58,0.00,,,0.00,0,Wunderground v.1.15,2013-10-24 23:37:00,
2013-10-24 19:40:00,43.4,29.6,30.09,West,278,4.0,4.0,58,0.00,,,0.00,0,Wunderground v.1.15,2013-10-24 23:40:00,
2013-10-24 19:41:00,43.3,29.5,30.09,WNW,302,4.0,4.0,58,0.00,,,0.00,0,Wunderground v.1.15,2013-10-24 23:41:00,
2013-10-24 19:43:00,43.2,29.4,30.09,NW,306,4.0,7.0,58,0.00,,,0.00,0,Wunderground v.1.15,2013-10-24 23:43:00,
2013-10-24 19:44:00,43.2,29.8,30.09,WNW,299,4.0,8.0,59,0.00,,,0.00,0,Wunderground v.1.15,2013-10-24 23:44:00,
2013-10-24 19:45:00,43.1,29.3,30.09,WNW,298,5.0,8.0,58,0.00,,,0.00,0,Wunderground v.1.15,2013-10-24 23:45:00,
2013-10-24 19:50:00,43.0,29.6,30.09,West,275,4.0,4.0,59,0.00,,,0.00,0,Wunderground v.1.15,2013-10-24 23:50:00,
2013-10-24 19:51:00,43.0,29.6,30.09,North,5,4.0,7.0,59,0.00,,,0.00,0,Wunderground v.1.15,2013-10-24 23:51:00,
2013-10-24 19:52:00,43.0,29.6,30.09,NE,43,4.0,7.0,59,0.00,,,0.00,0,Wunderground v.1.15,2013-10-24 23:52:00,
2013-10-24 19:53:00,43.0,29.6,30.09,WNW,302,4.0,7.0,59,0.00,,,0.00,0,Wunderground v.1.15,2013-10-24 23:53:00,
2013-10-24 19:55:00,42.9,29.5,30.09,West,278,4.0,7.0,59,0.00,,,0.00,0,Wunderground v.1.15,2013-10-24 23:55:00,
2013-10-24 19:56:00,42.9,30.0,30.09,WNW,282,4.0,7.0,60,0.00,,,0.00,0,Wunderground v.1.15,2013-10-24 23:56:00,
2013-10-24 19:57:00,42.9,30.0,30.09,WSW,255,4.0,7.0,60,0.00,,,0.00,0,Wunderground v.1.15,2013-10-24 23:57:00,
2013-10-24 19:58:00,42.8,29.9,30.09,WSW,258,4.0,7.0,60,0.00,,,0.00,0,Wunderground v.1.15,2013-10-24 23:58:00,
2013-10-24 20:00:00,42.7,29.8,30.10,NW,315,4.0,4.0,60,0.00,,,0.00,0,Wunderground v.1.15,2013-10-25 00:00:00,
2013-10-24 20:01:00,42.6,29.7,30.09,NW,321,4.0,4.0,60,0.00,,,0.00,0,Wunderground v.1.15,2013-10-25 00:01:00,
2013-10-24 20:05:00,42.5,30.0,30.09,NW,304,4.0,8.0,61,0.00,,,0.00,0,Wunderground v.1.15,2013-10-25 00:05:00,
2013-10-24 20:06:00,42.4,29.9,30.09,WNW,292,4.0,8.0,61,0.00,,,0.00,0,Wunderground v.1.15,2013-10-25 00:06:00,
2013-10-24 20:08:00,42.4,29.9,30.10,West,279,4.0,8.0,61,0.00,,,0.00,0,Wunderground v.1.15,2013-10-25 00:08:00,
2013-10-24 20:11:00,42.3,30.2,30.10,NNW,336,4.0,4.0,62,0.00,,,0.00,0,Wunderground v.1.15,2013-10-25 00:11:00,
2013-10-24 20:12:00,42.3,30.2,30.10,WNW,291,4.0,4.0,62,0.00,,,0.00,0,Wunderground v.1.15,2013-10-25 00:12:00,
2013-10-24 20:15:00,42.2,30.1,30.10,WNW,296,3.0,4.0,62,0.00,,,0.00,0,Wunderground v.1.15,2013-10-25 00:15:00,
2013-10-24 20:17:00,42.1,30.0,30.10,WNW,298,2.0,4.0,62,0.00,,,0.00,0,Wunderground v.1.15,2013-10-25 00:17:00,
2013-10-24 20:19:00,42.1,30.0,30.10,WNW,294,2.0,4.0,62,0.00,,,0.00,0,Wunderground v.1.15,2013-10-25 00:19:00,
2013-10-24 20:20:00,42.1,30.4,30.10,WNW,292,2.0,2.0,63,0.00,,,0.00,0,Wunderground v.1.15,2013-10-25 00:20:00,
2013-10-24 20:22:00,42.0,29.9,30.10,West,275,2.0,4.0,62,0.00,,,0.00,0,Wunderground v.1.15,2013-10-25 00:22:00,
2013-10-24 20:24:00,42.0,29.9,30.10,WNW,282,3.0,4.0,62,0.00,,,0.00,0,Wunderground v.1.15,2013-10-25 00:24:00,
2013-10-24 20:25:00,42.0,30.3,30.10,WNW,282,3.0,4.0,63,0.00,,,0.00,0,Wunderground v.1.15,2013-10-25 00:25:00,
2013-10-24 20:26:00,42.0,30.3,30.10,West,272,3.0,4.0,63,0.00,,,0.00,0,Wunderground v.1.15,2013-10-25 00:26:00,
2013-10-24 20:29:00,41.9,30.2,30.10,NW,309,3.0,4.0,63,0.00,,,0.00,0,Wunderground v.1.15,2013-10-25 00:29:00,
2013-10-24 20:30:00,41.9,30.2,30.10,WNW,286,3.0,5.0,63,0.00,,,0.00,0,Wunderground v.1.15,2013-10-25 00:30:00,
2013-10-24 20:31:00,41.8,30.1,30.10,WNW,302,3.0,7.0,63,0.00,,,0.00,0,Wunderground v.1.15,2013-10-25 00:31:00,
2013-10-24 20:32:00,41.8,30.1,30.10,NNW,341,3.0,7.0,63,0.00,,,0.00,0,Wunderground v.1.15,2013-10-25 00:32:00,
2013-10-24 20:35:00,41.8,30.5,30.10,WNW,303,4.0,7.0,64,0.00,,,0.00,0,Wunderground v.1.15,2013-10-25 00:35:00,
2013-10-24 20:36:00,41.8,30.5,30.10,WNW,293,4.0,7.0,64,0.00,,,0.00,0,Wunderground v.1.15,2013-10-25 00:36:00,
2013-10-24 20:37:00,41.7,30.4,30.10,NW,315,4.0,7.0,64,0.00,,,0.00,0,Wunderground v.1.15,2013-10-25 00:37:00,
2013-10-24 20:38:00,41.7,30.4,30.10,WNW,288,4.0,7.0,64,0.00,,,0.00,0,Wunderground v.1.15,2013-10-25 00:38:00,
2013-10-24 20:39:00,41.6,30.3,30.10,WNW,298,4.0,7.0,64,0.00,,,0.00,0,Wunderground v.1.15,2013-10-25 00:39:00,
2013-10-24 20:40:00,41.6,30.3,30.10,NNW,344,4.0,4.0,64,0.00,,,0.00,0,Wunderground v.1.15,2013-10-25 00:40:00,
2013-10-24 20:43:00,41.5,30.2,30.10,WNW,294,3.0,5.0,64,0.00,,,0.00,0,Wunderground v.1.15,2013-10-25 00:43:00,
2013-10-24 20:46:00,41.4,30.1,30.10,NNE,22,3.0,5.0,64,0.00,,,0.00,0,Wunderground v.1.15,2013-10-25 00:46:00,
2013-10-24 20:47:00,41.4,30.1,30.10,WNW,295,3.0,5.0,64,0.00,,,0.00,0,Wunderground v.1.15,2013-10-25 00:47:00,
2013-10-24 20:49:00,41.4,30.5,30.10,WSW,257,3.0,5.0,65,0.00,,,0.00,0,Wunderground v.1.15,2013-10-25 00:49:00,
2013-10-24 20:50:00,41.4,30.5,30.10,West,276,3.0,4.0,65,0.00,,,0.00,0,Wunderground v.1.15,2013-10-25 00:50:00,
2013-10-24 20:53:00,41.4,30.5,30.11,WNW,297,3.0,4.0,65,0.00,,,0.00,0,Wunderground v.1.15,2013-10-25 00:53:00,
2013-10-24 20:56:00,41.3,30.4,30.11,WNW,292,3.0,4.0,65,0.00,,,0.00,0,Wunderground v.1.15,2013-10-25 00:56:00,
2013-10-24 20:59:00,41.2,30.3,30.11,WNW,302,3.0,5.0,65,0.00,,,0.00,0,Wunderground v.1.15,2013-10-25 00:59:00,
2013-10-24 21:00:00,41.2,30.3,30.11,WNW,284,3.0,3.0,65,0.00,,,0.00,0,Wunderground v.1.15,2013-10-25 01:00:00,
2013-10-24 21:02:00,41.2,30.3,30.10,NNW,331,3.0,3.0,65,0.00,,,0.00,0,Wunderground v.1.15,2013-10-25 01:02:00,
2013-10-24 21:03:00,41.2,30.7,30.11,NW,322,3.0,3.0,66,0.00,,,0.00,0,Wunderground v.1.15,2013-10-25 01:03:00,
2013-10-24 21:04:00,41.2,30.7,30.11,WNW,298,2.0,3.0,66,0.00,,,0.00,0,Wunderground v.1.15,2013-10-25 01:04:00,
2013-10-24 21:06:00,41.1,30.6,30.11,WNW,292,2.0,4.0,66,0.00,,,0.00,0,Wunderground v.1.15,2013-10-25 01:06:00,
2013-10-24 21:07:00,41.1,30.6,30.11,WNW,302,2.0,4.0,66,0.00,,,0.00,0,Wunderground v.1.15,2013-10-25 01:07:00,
2013-10-24 21:09:00,41.1,30.6,30.11,West,278,2.0,5.0,66,0.00,,,0.00,0,Wunderground v.1.15,2013-10-25 01:09:00,
2013-10-24 21:10:00,41.1,30.6,30.11,WNW,290,2.0,2.0,66,0.00,,,0.00,0,Wunderground v.1.15,2013-10-25 01:10:00,
2013-10-24 21:13:00,41.1,30.6,30.11,WNW,292,2.0,5.0,66,0.00,,,0.00,0,Wunderground v.1.15,2013-10-25 01:13:00,
2013-10-24 21:15:00,41.0,30.5,30.11,NW,306,3.0,5.0,66,0.00,,,0.00,0,Wunderground v.1.15,2013-10-25 01:15:00,
2013-10-24 21:19:00,41.0,30.5,30.10,WNW,282,3.0,5.0,66,0.00,,,0.00,0,Wunderground v.1.15,2013-10-25 01:19:00,
2013-10-24 21:21:00,40.9,30.4,30.11,West,265,2.0,3.0,66,0.00,,,0.00,0,Wunderground v.1.15,2013-10-25 01:21:00,
2013-10-24 21:22:00,40.9,30.4,30.11,WNW,300,2.0,3.0,66,0.00,,,0.00,0,Wunderground v.1.15,2013-10-25 01:22:00,
2013-10-24 21:23:00,40.9,30.4,30.11,West,263,2.0,3.0,66,0.00,,,0.00,0,Wunderground v.1.15,2013-10-25 01:23:00,
2013-10-24 21:25:00,40.9,30.4,30.11,WNW,299,2.0,3.0,66,0.00,,,0.00,0,Wunderground v.1.15,2013-10-25 01:25:00,
2013-10-24 21:28:00,40.9,30.8,30.11,WNW,286,1.0,3.0,67,0.00,,,0.00,0,Wunderground v.1.15,2013-10-25 01:28:00,
2013-10-24 21:30:00,40.8,30.3,30.11,WNW,296,1.0,2.0,66,0.00,,,0.00,0,Wunderground v.1.15,2013-10-25 01:30:00,
2013-10-24 21:31:00,40.8,30.7,30.11,West,278,1.0,3.0,67,0.00,,,0.00,0,Wunderground v.1.15,2013-10-25 01:31:00,
2013-10-24 21:34:00,40.7,30.6,30.11,WNW,288,1.0,3.0,67,0.00,,,0.00,0,Wunderground v.1.15,2013-10-25 01:34:00,
2013-10-24 21:35:00,40.7,30.6,30.11,WNW,282,1.0,3.0,67,0.00,,,0.00,0,Wunderground v.1.15,2013-10-25 01:35:00,
2013-10-24 21:36:00,40.7,30.6,30.11,WNW,284,1.0,3.0,67,0.00,,,0.00,0,Wunderground v.1.15,2013-10-25 01:36:00,
2013-10-24 21:40:00,40.7,30.6,30.11,NW,304,2.0,2.0,67,0.00,,,0.00,0,Wunderground v.1.15,2013-10-25 01:40:00,
2013-10-24 21:41:00,40.6,30.5,30.11,WNW,286,2.0,4.0,67,0.00,,,0.00,0,Wunderground v.1.15,2013-10-25 01:41:00,
2013-10-24 21:42:00,40.6,30.5,30.11,WNW,302,2.0,4.0,67,0.00,,,0.00,0,Wunderground v.1.15,2013-10-25 01:42:00,
2013-10-24 21:44:00,40.6,30.5,30.11,NW,309,2.0,4.0,67,0.00,,,0.00,0,Wunderground v.1.15,2013-10-25 01:44:00,
2013-10-24 21:45:00,40.5,30.4,30.11,NW,309,2.0,4.0,67,0.00,,,0.00,0,Wunderground v.1.15,2013-10-25 01:45:00,
2013-10-24 21:48:00,40.4,30.3,30.11,WNW,282,2.0,4.0,67,0.00,,,0.00,0,Wunderground v.1.15,2013-10-25 01:48:00,
2013-10-24 21:50:00,40.3,30.6,30.11,WNW,301,2.0,2.0,68,0.00,,,0.00,0,Wunderground v.1.15,2013-10-25 01:50:00,
2013-10-24 21:51:00,40.2,30.5,30.11,WNW,299,2.0,4.0,68,0.00,,,0.00,0,Wunderground v.1.15,2013-10-25 01:51:00,
2013-10-24 21:53:00,40.1,30.4,30.11,WNW,298,2.0,4.0,68,0.00,,,0.00,0,Wunderground v.1.15,2013-10-25 01:53:00,
2013-10-24 21:54:00,40.1,30.4,30.11,West,273,2.0,4.0,68,0.00,,,0.00,0,Wunderground v.1.15,2013-10-25 01:54:00,
2013-10-24 21:57:00,40.0,30.3,30.11,NNW,347,2.0,4.0,68,0.00,,,0.00,0,Wunderground v.1.15,2013-10-25 01:57:00,
2013-10-24 21:59:00,39.9,30.2,30.11,NW,309,2.0,4.0,68,0.00,,,0.00,0,Wunderground v.1.15,2013-10-25 01:59:00,
2013-10-24 22:03:00,39.9,30.5,30.11,WNW,285,2.0,4.0,69,0.00,,,0.00,0,Wunderground v.1.15,2013-10-25 02:03:00,
2013-10-24 22:05:00,39.9,30.5,30.11,NW,309,3.0,5.0,69,0.00,,,0.00,0,Wunderground v.1.15,2013-10-25 02:05:00,
2013-10-24 22:08:00,40.0,30.6,30.11,West,281,3.0,5.0,69,0.00,,,0.00,0,Wunderground v.1.15,2013-10-25 02:08:00,
2013-10-24 22:09:00,40.0,30.6,30.11,WNW,285,3.0,5.0,69,0.00,,,0.00,0,Wunderground v.1.15,2013-10-25 02:09:00,
2013-10-24 22:11:00,40.0,30.6,30.11,NW,311,3.0,3.0,69,0.00,,,0.00,0,Wunderground v.1.15,2013-10-25 02:11:00,
2013-10-24 22:13:00,40.0,30.6,30.11,WNW,294,3.0,4.0,69,0.00,,,0.00,0,Wunderground v.1.15,2013-10-25 02:13:00,
2013-10-24 22:15:00,40.0,30.6,30.12,NNE,12,3.0,4.0,69,0.00,,,0.00,0,Wunderground v.1.15,2013-10-25 02:15:00,
2013-10-24 22:16:00,40.0,30.6,30.11,WNW,300,3.0,4.0,69,0.00,,,0.00,0,Wunderground v.1.15,2013-10-25 02:16:00,
2013-10-24 22:17:00,40.0,30.6,30.12,West,277,2.0,4.0,69,0.00,,,0.00,0,Wunderground v.1.15,2013-10-25 02:17:00,
2013-10-24 22:19:00,40.0,30.6,30.12,NW,321,2.0,4.0,69,0.00,,,0.00,0,Wunderground v.1.15,2013-10-25 02:19:00,
2013-10-24 22:22:00,40.0,30.6,30.12,WNW,292,2.0,2.0,69,0.00,,,0.00,0,Wunderground v.1.15,2013-10-25 02:22:00,
2013-10-24 22:23:00,40.0,30.6,30.12,WNW,293,2.0,2.0,69,0.00,,,0.00,0,Wunderground v.1.15,2013-10-25 02:23:00,
2013-10-24 22:24:00,40.0,31.0,30.12,WNW,291,2.0,2.0,70,0.00,,,0.00,0,Wunderground v.1.15,2013-10-25 02:24:00,
2013-10-24 22:27:00,40.0,31.0,30.12,WNW,296,2.0,2.0,70,0.00,,,0.00,0,Wunderground v.1.15,2013-10-25 02:27:00,
2013-10-24 22:28:00,40.0,31.0,30.12,WNW,290,2.0,5.0,70,0.00,,,0.00,0,Wunderground v.1.15,2013-10-25 02:28:00,
2013-10-24 22:30:00,40.0,31.0,30.12,WNW,286,2.0,3.0,70,0.00,,,0.00,0,Wunderground v.1.15,2013-10-25 02:30:00,
2013-10-24 22:32:00,40.0,31.0,30.12,NW,307,2.0,5.0,70,0.00,,,0.00,0,Wunderground v.1.15,2013-10-25 02:32:00,
2013-10-24 22:33:00,40.0,31.0,30.12,WNW,298,2.0,5.0,70,0.00,,,0.00,0,Wunderground v.1.15,2013-10-25 02:33:00,
2013-10-24 22:34:00,40.1,31.1,30.12,WNW,291,2.0,6.0,70,0.00,,,0.00,0,Wunderground v.1.15,2013-10-25 02:34:00,
2013-10-24 22:39:00,40.1,31.1,30.12,WNW,302,3.0,6.0,70,0.00,,,0.00,0,Wunderground v.1.15,2013-10-25 02:39:00,
2013-10-24 22:40:00,40.1,31.1,30.12,West,281,3.0,3.0,70,0.00,,,0.00,0,Wunderground v.1.15,2013-10-25 02:40:00,
2013-10-24 22:43:00,40.2,31.2,30.12,WNW,286,3.0,3.0,70,0.00,,,0.00,0,Wunderground v.1.15,2013-10-25 02:43:00,
2013-10-24 22:45:00,40.2,31.2,30.12,WNW,300,3.0,3.0,70,0.00,,,0.00,0,Wunderground v.1.15,2013-10-25 02:45:00,
2013-10-24 22:46:00,40.3,31.3,30.12,NW,316,3.0,4.0,70,0.00,,,0.00,0,Wunderground v.1.15,2013-10-25 02:46:00,
2013-10-24 22:47:00,40.3,31.3,30.12,NNW,346,3.0,4.0,70,0.00,,,0.00,0,Wunderground v.1.15,2013-10-25 02:47:00,
2013-10-24 22:49:00,40.3,31.3,30.12,NW,304,3.0,4.0,70,0.00,,,0.00,0,Wunderground v.1.15,2013-10-25 02:49:00,
2013-10-24 22:51:00,40.2,31.2,30.12,WNW,285,3.0,4.0,70,0.00,,,0.00,0,Wunderground v.1.15,2013-10-25 02:51:00,
2013-10-24 22:52:00,40.3,31.3,30.12,WNW,294,3.0,4.0,70,0.00,,,0.00,0,Wunderground v.1.15,2013-10-25 02:52:00,
2013-10-24 22:54:00,40.3,31.3,30.12,West,271,3.0,4.0,70,0.00,,,0.00,0,Wunderground v.1.15,2013-10-25 02:54:00,
2013-10-24 22:56:00,40.3,31.3,30.12,WNW,290,3.0,4.0,70,0.00,,,0.00,0,Wunderground v.1.15,2013-10-25 02:56:00,
2013-10-24 22:59:00,40.2,31.2,30.12,SW,221,2.0,4.0,70,0.00,,,0.00,0,Wunderground v.1.15,2013-10-25 02:59:00,
2013-10-24 23:00:00,40.2,31.5,30.12,SE,126,2.0,5.0,71,0.00,,,0.00,0,Wunderground v.1.15,2013-10-25 03:00:00,
2013-10-24 23:01:00,40.2,31.2,30.12,ESE,117,2.0,5.0,70,0.00,,,0.00,0,Wunderground v.1.15,2013-10-25 03:01:00,
2013-10-24 23:02:00,40.1,31.1,30.12,SE,138,2.0,5.0,70,0.00,,,0.00,0,Wunderground v.1.15,2013-10-25 03:02:00,
2013-10-24 23:05:00,39.9,31.3,30.12,South,180,2.0,5.0,71,0.00,,,0.00,0,Wunderground v.1.15,2013-10-25 03:05:00,
2013-10-24 23:07:00,39.8,31.2,30.12,SSE,153,2.0,5.0,71,0.00,,,0.00,0,Wunderground v.1.15,2013-10-25 03:07:00,
2013-10-24 23:11:00,39.6,31.0,30.12,West,267,2.0,2.0,71,0.00,,,0.00,0,Wunderground v.1.15,2013-10-25 03:11:00,
2013-10-24 23:12:00,39.6,31.3,30.12,West,275,1.0,2.0,72,0.00,,,0.00,0,Wunderground v.1.15,2013-10-25 03:12:00,
2013-10-24 23:13:00,39.5,31.2,30.12,West,279,1.0,3.0,72,0.00,,,0.00,0,Wunderground v.1.15,2013-10-25 03:13:00,
2013-10-24 23:15:00,39.5,31.2,30.12,WNW,296,1.0,3.0,72,0.00,,,0.00,0,Wunderground v.1.15,2013-10-25 03:15:00,
2013-10-24 23:16:00,39.5,31.2,30.12,WNW,288,1.0,3.0,72,0.00,,,0.00,0,Wunderground v.1.15,2013-10-25 03:16:00,
2013-10-24 23:18:00,39.5,31.2,30.12,WNW,296,1.0,3.0,72,0.00,,,0.00,0,Wunderground v.1.15,2013-10-25 03:18:00,
2013-10-24 23:19:00,39.6,31.3,30.12,WNW,292,1.0,3.0,72,0.00,,,0.00,0,Wunderground v.1.15,2013-10-25 03:19:00,
2013-10-24 23:24:00,39.6,31.0,30.12,WNW,292,1.0,2.0,71,0.00,,,0.00,0,Wunderground v.1.15,2013-10-25 03:24:00,
2013-10-24 23:25:00,39.6,31.3,30.12,WNW,292,1.0,2.0,72,0.00,,,0.00,0,Wunderground v.1.15,2013-10-25 03:25:00,
2013-10-24 23:26:00,39.6,31.0,30.12,West,278,1.0,3.0,71,0.00,,,0.00,0,Wunderground v.1.15,2013-10-25 03:26:00,
2013-10-24 23:28:00,39.6,31.0,30.12,West,277,1.0,3.0,71,0.00,,,0.00,0,Wunderground v.1.15,2013-10-25 03:28:00,
2013-10-24 23:30:00,39.7,31.1,30.12,WSW,254,1.0,1.0,71,0.00,,,0.00,0,Wunderground v.1.15,2013-10-25 03:30:00,
2013-10-24 23:32:00,39.7,31.4,30.12,West,262,2.0,2.0,72,0.00,,,0.00,0,Wunderground v.1.15,2013-10-25 03:32:00,
2013-10-24 23:33:00,39.7,31.1,30.12,West,279,2.0,4.0,71,0.00,,,0.00,0,Wunderground v.1.15,2013-10-25 03:33:00,
2013-10-24 23:35:00,39.7,31.1,30.12,SSW,209,2.0,4.0,71,0.00,,,0.00,0,Wunderground v.1.15,2013-10-25 03:35:00,
2013-10-24 23:37:00,39.7,31.4,30.13,SSE,150,2.0,4.0,72,0.00,,,0.00,0,Wunderground v.1.15,2013-10-25 03:37:00,
2013-10-24 23:39:00,39.7,31.4,30.12,WSW,254,2.0,4.0,72,0.00,,,0.00,0,Wunderground v.1.15,2013-10-25 03:39:00,
2013-10-24 23:40:00,39.6,31.3,30.13,West,272,2.0,2.0,72,0.00,,,0.00,0,Wunderground v.1.15,2013-10-25 03:40:00,
2013-10-24 23:43:00,39.5,31.6,30.13,WNW,290,2.0,2.0,73,0.00,,,0.00,0,Wunderground v.1.15,2013-10-25 03:43:00,
2013-10-24 23:44:00,39.4,31.5,30.13,West,260,1.0,2.0,73,0.00,,,0.00,0,Wunderground v.1.15,2013-10-25 03:44:00,
2013-10-24 23:46:00,39.4,31.5,30.13,South,180,1.0,2.0,73,0.00,,,0.00,0,Wunderground v.1.15,2013-10-25 03:46:00,
2013-10-24 23:47:00,39.3,31.4,30.12,SW,230,1.0,2.0,73,0.00,,,0.00,0,Wunderground v.1.15,2013-10-25 03:47:00,
2013-10-24 23:48:00,39.3,31.7,30.13,West,263,1.0,2.0,74,0.00,,,0.00,0,Wunderground v.1.15,2013-10-25 03:48:00,
2013-10-24 23:50:00,39.2,31.3,30.12,West,268,1.0,2.0,73,0.00,,,0.00,0,Wunderground v.1.15,2013-10-25 03:50:00,
2013-10-24 23:52:00,39.1,31.2,30.13,West,281,1.0,2.0,73,0.00,,,0.00,0,Wunderground v.1.15,2013-10-25 03:52:00,
2013-10-24 23:53:00,39.1,31.5,30.13,West,267,1.0,2.0,74,0.00,,,0.00,0,Wunderground v.1.15,2013-10-25 03:53:00,
2013-10-24 23:55:00,39.2,31.6,30.12,West,277,1.0,2.0,74,0.00,,,0.00,0,Wunderground v.1.15,2013-10-25 03:55:00,
2013-10-24 23:56:00,39.1,31.5,30.12,West,269,1.0,2.0,74,0.00,,,0.00,0,Wunderground v.1.15,2013-10-25 03:56:00,
2013-10-24 23:58:00,39.1,31.2,30.12,West,275,1.0,2.0,73,0.00,,,0.00,0,Wunderground v.1.15,2013-10-25 03:58:00,